Time,TemperatureF,DewpointF,PressureIn,WindDirection,WindDirectionDegrees,WindSpeedMPH,WindSpeedGustMPH,Humidity,HourlyPrecipIn,Conditions,Clouds,dailyrainin,SoftwareType,DateUTC
2013-05-24 00:00:00,64.0,55.2,29.98,West,266,1.0,1.0,73,0.00,,---,0.00,VWS V14.01,2013-05-24 04:00:00,
2013-05-24 00:01:00,64.0,55.2,29.98,West,266,0.0,1.0,73,0.00,,---,0.00,VWS V14.01,2013-05-24 04:01:00,
2013-05-24 00:02:00,64.0,54.8,29.98,East,97,1.0,3.0,72,0.00,,---,0.00,VWS V14.01,2013-05-24 04:02:00,
2013-05-24 00:05:00,66.3,55.4,29.97,North,3,0.0,3.0,68,0.00,,---,0.00,VWS V14.01,2013-05-24 04:05:00,
2013-05-24 00:07:00,64.0,55.2,29.98,East,89,0.0,3.0,73,0.00,,---,0.00,VWS V14.01,2013-05-24 04:07:00,
2013-05-24 00:10:00,66.2,55.3,29.98,West,274,4.0,4.0,68,0.00,,---,0.00,VWS V14.01,2013-05-24 04:10:00,
2013-05-24 00:12:00,63.8,55.4,29.98,ESE,123,1.0,1.0,74,0.00,,---,0.00,VWS V14.01,2013-05-24 04:12:00,
2013-05-24 00:15:00,66.1,55.2,29.98,SSE,166,1.0,4.0,68,0.00,,---,0.00,VWS V14.01,2013-05-24 04:15:00,
2013-05-24 00:17:00,63.7,54.9,29.98,ESE,105,2.0,2.0,73,0.00,,---,0.00,VWS V14.01,2013-05-24 04:17:00,
2013-05-24 00:20:00,66.0,55.2,29.97,WNW,295,0.0,5.0,68,0.00,,---,0.00,VWS V14.01,2013-05-24 04:20:00,
2013-05-24 00:22:00,63.8,55.0,29.98,East,98,1.0,4.0,73,0.00,,---,0.00,VWS V14.01,2013-05-24 04:22:00,
2013-05-24 00:25:00,65.8,55.0,29.97,West,280,0.0,2.0,68,0.00,,---,0.00,VWS V14.01,2013-05-24 04:25:00,
2013-05-24 00:27:00,63.8,55.0,29.99,ENE,57,1.0,1.0,73,0.00,,---,0.00,VWS V14.01,2013-05-24 04:27:00,
2013-05-24 00:30:00,65.5,55.1,29.97,WNW,299,0.0,1.0,69,0.00,,---,0.00,VWS V14.01,2013-05-24 04:30:00,
2013-05-24 00:32:00,63.5,55.1,29.99,East,91,1.0,3.0,74,0.00,,---,0.00,VWS V14.01,2013-05-24 04:32:00,
2013-05-24 00:35:00,65.2,55.2,29.97,North,352,0.0,2.0,70,0.00,,---,0.00,VWS V14.01,2013-05-24 04:35:00,
2013-05-24 00:37:00,63.3,54.9,29.99,ESE,115,0.0,2.0,74,0.00,,---,0.00,VWS V14.01,2013-05-24 04:37:00,
2013-05-24 00:40:00,64.9,55.3,29.97,SE,131,2.0,3.0,71,0.00,,---,0.00,VWS V14.01,2013-05-24 04:40:00,
2013-05-24 00:42:00,62.9,54.9,30.00,ESE,114,0.0,0.0,75,0.00,,---,0.00,VWS V14.01,2013-05-24 04:42:00,
2013-05-24 00:45:00,64.6,55.4,29.97,West,259,0.0,3.0,72,0.00,,---,0.00,VWS V14.01,2013-05-24 04:45:00,
2013-05-24 00:47:00,62.4,55.1,30.00,ESE,114,0.0,0.0,77,0.00,,---,0.00,VWS V14.01,2013-05-24 04:47:00,
2013-05-24 00:50:00,64.4,55.2,29.98,NW,326,0.0,2.0,72,0.00,,---,0.00,VWS V14.01,2013-05-24 04:50:00,
2013-05-24 00:52:00,62.1,54.8,30.00,ESE,108,2.0,3.0,77,0.00,,---,0.00,VWS V14.01,2013-05-24 04:52:00,
2013-05-24 00:55:00,64.1,54.9,29.98,SSW,200,0.0,3.0,72,0.00,,---,0.00,VWS V14.01,2013-05-24 04:55:00,
2013-05-24 00:57:00,62.2,54.9,30.00,East,86,1.0,2.0,77,0.00,,---,0.00,VWS V14.01,2013-05-24 04:57:00,
2013-05-24 01:00:00,64.0,55.2,29.98,West,266,1.0,3.0,73,0.00,,---,0.00,VWS V14.01,2013-05-24 05:00:00,
2013-05-24 01:02:00,62.2,54.9,30.00,NNW,342,0.0,2.0,77,0.00,,---,0.00,VWS V14.01,2013-05-24 05:02:00,
2013-05-24 01:05:00,64.0,54.8,29.98,East,80,3.0,3.0,72,0.00,,---,0.00,VWS V14.01,2013-05-24 05:05:00,
2013-05-24 01:07:00,62.0,55.1,30.00,NNW,343,0.0,1.0,78,0.00,,---,0.00,VWS V14.01,2013-05-24 05:07:00,
2013-05-24 01:10:00,63.9,55.1,29.98,ESE,122,0.0,4.0,73,0.00,,---,0.00,VWS V14.01,2013-05-24 05:10:00,
2013-05-24 01:12:00,61.6,55.0,30.00,ENE,73,0.0,0.0,79,0.00,,---,0.00,VWS V14.01,2013-05-24 05:12:00,
2013-05-24 01:15:00,63.7,54.9,29.98,WSW,254,2.0,4.0,73,0.00,,---,0.00,VWS V14.01,2013-05-24 05:15:00,
2013-05-24 01:17:00,61.3,54.7,30.00,ENE,73,0.0,1.0,79,0.00,,---,0.00,VWS V14.01,2013-05-24 05:17:00,
2013-05-24 01:20:00,63.8,55.0,29.98,SSW,201,3.0,7.0,73,0.00,,---,0.00,VWS V14.01,2013-05-24 05:20:00,
2013-05-24 01:22:00,60.9,55.0,30.00,ENE,73,0.0,1.0,81,0.00,,---,0.00,VWS V14.01,2013-05-24 05:22:00,
2013-05-24 01:25:00,63.8,55.0,29.99,ENE,57,0.0,4.0,73,0.00,,---,0.00,VWS V14.01,2013-05-24 05:25:00,
2013-05-24 01:27:00,60.3,54.5,30.01,ENE,73,0.0,0.0,81,0.00,,---,0.00,VWS V14.01,2013-05-24 05:27:00,
2013-05-24 01:30:00,63.6,55.2,29.99,ENE,77,0.0,2.0,74,0.00,,---,0.00,VWS V14.01,2013-05-24 05:30:00,
2013-05-24 01:32:00,59.7,54.5,30.01,North,360,0.0,1.0,83,0.00,,---,0.00,VWS V14.01,2013-05-24 05:32:00,
2013-05-24 01:35:00,63.4,55.0,29.99,East,91,1.0,3.0,74,0.00,,---,0.00,VWS V14.01,2013-05-24 05:35:00,
2013-05-24 01:37:00,59.1,54.3,30.00,North,360,0.0,0.0,84,0.00,,---,0.00,VWS V14.01,2013-05-24 05:37:00,
2013-05-24 01:40:00,63.1,55.1,29.99,ESE,114,0.0,2.0,75,0.00,,---,0.00,VWS V14.01,2013-05-24 05:40:00,
2013-05-24 01:42:00,58.6,54.1,30.00,North,360,0.0,0.0,85,0.00,,---,0.00,VWS V14.01,2013-05-24 05:42:00,
2013-05-24 01:45:00,62.6,54.9,30.00,ESE,114,0.0,1.0,76,0.00,,---,0.00,VWS V14.01,2013-05-24 05:45:00,
2013-05-24 01:47:00,58.2,54.0,30.00,North,359,0.0,1.0,86,0.00,,---,0.00,VWS V14.01,2013-05-24 05:47:00,
2013-05-24 01:50:00,62.2,54.9,30.00,ESE,110,0.0,0.0,77,0.00,,---,0.00,VWS V14.01,2013-05-24 05:50:00,
2013-05-24 01:52:00,58.0,54.2,30.00,North,360,0.0,0.0,87,0.00,,---,0.00,VWS V14.01,2013-05-24 05:52:00,
2013-05-24 01:55:00,62.2,54.9,30.00,East,82,2.0,3.0,77,0.00,,---,0.00,VWS V14.01,2013-05-24 05:55:00,
2013-05-24 01:57:00,57.9,54.4,30.00,North,360,0.0,1.0,88,0.00,,---,0.00,VWS V14.01,2013-05-24 05:57:00,
2013-05-24 02:00:00,62.2,54.9,30.00,NNE,12,0.0,2.0,77,0.00,,---,0.00,VWS V14.01,2013-05-24 06:00:00,
2013-05-24 02:02:00,58.2,54.7,30.00,ENE,60,0.0,1.0,88,0.00,,---,0.00,VWS V14.01,2013-05-24 06:02:00,
2013-05-24 02:05:00,62.1,55.2,30.00,NNW,343,1.0,2.0,78,0.00,,---,0.00,VWS V14.01,2013-05-24 06:05:00,
2013-05-24 02:07:00,58.7,54.8,30.00,SE,124,0.0,0.0,87,0.00,,---,0.00,VWS V14.01,2013-05-24 06:07:00,
2013-05-24 02:10:00,61.7,54.8,30.00,ENE,73,0.0,2.0,78,0.00,,---,0.00,VWS V14.01,2013-05-24 06:10:00,
2013-05-24 02:12:00,58.7,54.5,29.99,North,352,0.0,1.0,86,0.00,,---,0.00,VWS V14.01,2013-05-24 06:12:00,
2013-05-24 02:15:00,61.4,54.8,30.00,ENE,74,0.0,1.0,79,0.00,,---,0.00,VWS V14.01,2013-05-24 06:15:00,
2013-05-24 02:17:00,58.6,54.8,29.99,North,351,0.0,0.0,87,0.00,,---,0.00,VWS V14.01,2013-05-24 06:17:00,
2013-05-24 02:20:00,61.1,54.9,30.00,ENE,73,0.0,1.0,80,0.00,,---,0.00,VWS V14.01,2013-05-24 06:20:00,
2013-05-24 02:22:00,58.5,54.7,29.99,North,352,0.0,0.0,87,0.00,,---,0.00,VWS V14.01,2013-05-24 06:22:00,
2013-05-24 02:25:00,60.5,54.7,30.01,ENE,73,0.0,1.0,81,0.00,,---,0.00,VWS V14.01,2013-05-24 06:25:00,
2013-05-24 02:27:00,58.3,54.8,29.99,North,352,0.0,1.0,88,0.00,,---,0.00,VWS V14.01,2013-05-24 06:27:00,
2013-05-24 02:30:00,59.9,54.4,30.00,North,360,1.0,1.0,82,0.00,,---,0.00,VWS V14.01,2013-05-24 06:30:00,
2013-05-24 02:32:00,58.2,54.7,30.00,North,351,0.0,0.0,88,0.00,,---,0.00,VWS V14.01,2013-05-24 06:32:00,
2013-05-24 02:35:00,59.3,54.5,30.00,North,359,0.0,1.0,84,0.00,,---,0.00,VWS V14.01,2013-05-24 06:35:00,
2013-05-24 02:37:00,58.0,54.5,30.00,North,352,0.0,1.0,88,0.00,,---,0.00,VWS V14.01,2013-05-24 06:37:00,
2013-05-24 02:40:00,58.8,54.0,30.00,North,359,0.0,0.0,84,0.00,,---,0.00,VWS V14.01,2013-05-24 06:40:00,
2013-05-24 02:42:00,57.7,54.2,30.00,North,352,0.0,1.0,88,0.00,,---,0.00,VWS V14.01,2013-05-24 06:42:00,
2013-05-24 02:45:00,58.4,53.9,30.00,North,359,0.0,0.0,85,0.00,,---,0.00,VWS V14.01,2013-05-24 06:45:00,
2013-05-24 02:47:00,57.9,54.7,30.00,NNE,29,0.0,1.0,89,0.00,,---,0.00,VWS V14.01,2013-05-24 06:47:00,
2013-05-24 02:50:00,58.1,54.6,30.00,North,360,0.0,1.0,88,0.00,,---,0.00,VWS V14.01,2013-05-24 06:50:00,
2013-05-24 02:52:00,58.0,54.5,30.00,NNE,29,0.0,0.0,88,0.00,,---,0.00,VWS V14.01,2013-05-24 06:52:00,
2013-05-24 02:55:00,57.9,54.4,30.00,North,360,1.0,1.0,88,0.00,,---,0.00,VWS V14.01,2013-05-24 06:55:00,
2013-05-24 02:57:00,58.0,54.5,30.00,WNW,300,0.0,1.0,88,0.00,,---,0.00,VWS V14.01,2013-05-24 06:57:00,
2013-05-24 03:00:00,58.0,54.5,30.00,ENE,59,1.0,4.0,88,0.00,,---,0.00,VWS V14.01,2013-05-24 07:00:00,
2013-05-24 03:02:00,58.0,54.5,30.00,WNW,300,0.0,1.0,88,0.00,,---,0.00,VWS V14.01,2013-05-24 07:02:00,
2013-05-24 03:05:00,58.5,54.7,29.99,SE,124,0.0,6.0,87,0.00,,---,0.00,VWS V14.01,2013-05-24 07:05:00,
2013-05-24 03:07:00,58.0,54.5,30.00,WNW,299,0.0,0.0,88,0.00,,---,0.00,VWS V14.01,2013-05-24 07:07:00,
2013-05-24 03:10:00,58.8,54.6,30.00,North,351,0.0,1.0,86,0.00,,---,0.00,VWS V14.01,2013-05-24 07:10:00,
2013-05-24 03:12:00,57.8,54.6,30.00,NW,312,0.0,1.0,89,0.00,,---,0.00,VWS V14.01,2013-05-24 07:12:00,
2013-05-24 03:15:00,58.6,54.8,29.99,North,352,0.0,1.0,87,0.00,,---,0.00,VWS V14.01,2013-05-24 07:15:00,
2013-05-24 03:17:00,57.8,54.6,30.00,WSW,255,1.0,3.0,89,0.00,,---,0.00,VWS V14.01,2013-05-24 07:17:00,
2013-05-24 03:20:00,58.6,54.4,29.99,North,352,0.0,1.0,86,0.00,,---,0.00,VWS V14.01,2013-05-24 07:20:00,
2013-05-24 03:22:00,58.0,54.8,30.00,West,278,0.0,3.0,89,0.00,,---,0.00,VWS V14.01,2013-05-24 07:22:00,
2013-05-24 03:25:00,58.4,54.5,29.99,North,352,1.0,1.0,87,0.00,,---,0.00,VWS V14.01,2013-05-24 07:25:00,
2013-05-24 03:27:00,58.7,54.8,30.00,ENE,65,0.0,7.0,87,0.00,,---,0.00,VWS V14.01,2013-05-24 07:27:00,
2013-05-24 03:30:00,58.2,54.7,30.00,North,352,0.0,1.0,88,0.00,,---,0.00,VWS V14.01,2013-05-24 07:30:00,
2013-05-24 03:32:00,58.8,54.6,30.00,WNW,298,0.0,0.0,86,0.00,,---,0.00,VWS V14.01,2013-05-24 07:32:00,
2013-05-24 03:35:00,58.1,54.6,30.00,North,352,0.0,1.0,88,0.00,,---,0.00,VWS V14.01,2013-05-24 07:35:00,
2013-05-24 03:37:00,58.7,54.8,30.01,WNW,297,0.0,0.0,87,0.00,,---,0.00,VWS V14.01,2013-05-24 07:37:00,
2013-05-24 03:40:00,57.9,54.4,30.00,North,351,1.0,1.0,88,0.00,,---,0.00,VWS V14.01,2013-05-24 07:40:00,
2013-05-24 03:42:00,58.6,54.8,30.01,NW,308,0.0,0.0,87,0.00,,---,0.00,VWS V14.01,2013-05-24 07:42:00,
2013-05-24 03:45:00,57.7,54.5,30.00,NNE,29,1.0,2.0,89,0.00,,---,0.00,VWS V14.01,2013-05-24 07:45:00,
2013-05-24 03:47:00,58.4,54.5,30.01,WNW,288,0.0,0.0,87,0.00,,---,0.00,VWS V14.01,2013-05-24 07:47:00,
2013-05-24 03:50:00,58.0,54.5,30.00,NNE,28,0.0,1.0,88,0.00,,---,0.00,VWS V14.01,2013-05-24 07:50:00,
2013-05-24 03:52:00,58.1,54.6,30.01,NNW,335,0.0,3.0,88,0.00,,---,0.00,VWS V14.01,2013-05-24 07:52:00,
2013-05-24 03:55:00,58.0,54.5,30.00,SSW,201,0.0,2.0,88,0.00,,---,0.00,VWS V14.01,2013-05-24 07:55:00,
2013-05-24 03:57:00,58.6,54.8,30.01,West,266,0.0,6.0,87,0.00,,---,0.00,VWS V14.01,2013-05-24 07:57:00,
2013-05-24 04:00:00,58.0,54.8,30.00,WNW,299,0.0,1.0,89,0.00,,---,0.00,VWS V14.01,2013-05-24 08:00:00,
2013-05-24 04:02:00,59.4,54.9,30.01,WNW,295,3.0,3.0,85,0.00,,---,0.00,VWS V14.01,2013-05-24 08:02:00,
2013-05-24 04:05:00,58.0,54.5,30.00,WNW,300,0.0,1.0,88,0.00,,---,0.00,VWS V14.01,2013-05-24 08:05:00,
2013-05-24 04:07:00,59.5,55.0,30.01,East,91,0.0,4.0,85,0.00,,---,0.00,VWS V14.01,2013-05-24 08:07:00,
2013-05-24 04:10:00,57.9,54.7,30.00,WNW,300,1.0,1.0,89,0.00,,---,0.00,VWS V14.01,2013-05-24 08:10:00,
2013-05-24 04:12:00,59.6,55.1,30.01,WNW,300,0.0,1.0,85,0.00,,---,0.00,VWS V14.01,2013-05-24 08:12:00,
2013-05-24 04:15:00,57.8,54.6,30.00,WNW,298,0.0,3.0,89,0.00,,---,0.00,VWS V14.01,2013-05-24 08:15:00,
2013-05-24 04:17:00,59.8,55.0,30.01,NW,326,0.0,2.0,84,0.00,,---,0.00,VWS V14.01,2013-05-24 08:17:00,
2013-05-24 04:20:00,57.8,54.6,30.00,WNW,301,0.0,3.0,89,0.00,,---,0.00,VWS V14.01,2013-05-24 08:20:00,
2013-05-24 04:22:00,59.7,54.9,30.01,NW,326,0.0,0.0,84,0.00,,---,0.00,VWS V14.01,2013-05-24 08:22:00,
2013-05-24 04:25:00,58.4,54.9,30.00,West,278,0.0,3.0,88,0.00,,---,0.00,VWS V14.01,2013-05-24 08:25:00,
2013-05-24 04:27:00,59.6,54.8,30.01,WSW,248,1.0,4.0,84,0.00,,---,0.00,VWS V14.01,2013-05-24 08:27:00,
2013-05-24 04:30:00,58.8,54.6,30.00,WNW,297,0.0,7.0,86,0.00,,---,0.00,VWS V14.01,2013-05-24 08:30:00,
2013-05-24 04:32:00,59.3,54.8,30.01,ESE,111,0.0,0.0,85,0.00,,---,0.00,VWS V14.01,2013-05-24 08:32:00,
2013-05-24 04:35:00,58.7,54.5,30.00,WNW,297,0.0,1.0,86,0.00,,---,0.00,VWS V14.01,2013-05-24 08:35:00,
2013-05-24 04:37:00,59.0,54.5,30.01,ESE,111,0.0,0.0,85,0.00,,---,0.00,VWS V14.01,2013-05-24 08:37:00,
2013-05-24 04:40:00,58.7,54.8,30.01,NW,307,0.0,1.0,87,0.00,,---,0.00,VWS V14.01,2013-05-24 08:40:00,
2013-05-24 04:42:00,58.7,54.8,30.01,ESE,111,0.0,0.0,87,0.00,,---,0.00,VWS V14.01,2013-05-24 08:42:00,
2013-05-24 04:45:00,58.5,54.7,30.01,WNW,288,0.0,1.0,87,0.00,,---,0.00,VWS V14.01,2013-05-24 08:45:00,
2013-05-24 04:47:00,58.2,54.4,30.01,ESE,111,1.0,1.0,87,0.00,,---,0.00,VWS V14.01,2013-05-24 08:47:00,
2013-05-24 04:50:00,58.3,54.5,30.01,WNW,293,1.0,1.0,87,0.00,,---,0.00,VWS V14.01,2013-05-24 08:50:00,
2013-05-24 04:52:00,57.8,54.6,30.01,WNW,288,1.0,1.0,89,0.00,,---,0.00,VWS V14.01,2013-05-24 08:52:00,
2013-05-24 04:55:00,58.0,54.5,30.01,NW,309,6.0,7.0,88,0.00,,---,0.00,VWS V14.01,2013-05-24 08:55:00,
2013-05-24 04:57:00,57.8,54.6,30.01,WNW,296,0.0,2.0,89,0.00,,---,0.00,VWS V14.01,2013-05-24 08:57:00,
2013-05-24 05:00:00,59.2,55.0,30.02,WNW,301,0.0,6.0,86,0.00,,---,0.00,VWS V14.01,2013-05-24 09:00:00,
2013-05-24 05:02:00,58.0,54.8,30.01,NNE,32,0.0,2.0,89,0.00,,---,0.00,VWS V14.01,2013-05-24 09:02:00,
2013-05-24 05:05:00,59.5,55.0,30.01,WNW,295,1.0,3.0,85,0.00,,---,0.00,VWS V14.01,2013-05-24 09:05:00,
2013-05-24 05:07:00,57.8,54.6,30.01,NNE,32,0.0,0.0,89,0.00,,---,0.00,VWS V14.01,2013-05-24 09:07:00,
2013-05-24 05:10:00,59.6,55.1,30.01,East,91,0.0,4.0,85,0.00,,---,0.00,VWS V14.01,2013-05-24 09:10:00,
2013-05-24 05:12:00,57.5,54.3,30.02,NW,320,0.0,2.0,89,0.00,,---,0.00,VWS V14.01,2013-05-24 09:12:00,
2013-05-24 05:15:00,59.6,54.8,30.01,WNW,301,1.0,1.0,84,0.00,,---,0.00,VWS V14.01,2013-05-24 09:15:00,
2013-05-24 05:17:00,57.2,54.3,30.02,NW,321,0.0,0.0,90,0.00,,---,0.00,VWS V14.01,2013-05-24 09:17:00,
2013-05-24 05:20:00,59.8,55.0,30.01,NW,326,0.0,2.0,84,0.00,,---,0.00,VWS V14.01,2013-05-24 09:20:00,
2013-05-24 05:22:00,57.1,54.5,30.02,NW,321,0.0,0.0,91,0.00,,---,0.00,VWS V14.01,2013-05-24 09:22:00,
2013-05-24 05:25:00,59.5,54.7,30.01,West,278,0.0,3.0,84,0.00,,---,0.00,VWS V14.01,2013-05-24 09:25:00,
2013-05-24 05:27:00,56.8,54.2,30.02,NW,321,0.0,0.0,91,0.00,,---,0.00,VWS V14.01,2013-05-24 09:27:00,
2013-05-24 05:30:00,59.5,55.0,30.01,ESE,111,0.0,4.0,85,0.00,,---,0.00,VWS V14.01,2013-05-24 09:30:00,
2013-05-24 05:32:00,56.7,54.4,30.02,WNW,302,0.0,2.0,92,0.00,,---,0.00,VWS V14.01,2013-05-24 09:32:00,
2013-05-24 05:35:00,59.2,54.7,30.01,ESE,111,0.0,1.0,85,0.00,,---,0.00,VWS V14.01,2013-05-24 09:35:00,
2013-05-24 05:37:00,56.8,54.5,30.02,NNW,330,0.0,0.0,92,0.00,,---,0.00,VWS V14.01,2013-05-24 09:37:00,
2013-05-24 05:40:00,58.8,54.6,30.01,ESE,111,0.0,1.0,86,0.00,,---,0.00,VWS V14.01,2013-05-24 09:40:00,
2013-05-24 05:42:00,57.0,54.7,30.03,NNW,340,0.0,3.0,92,0.00,,---,0.00,VWS V14.01,2013-05-24 09:42:00,
2013-05-24 05:45:00,58.4,54.5,30.01,ESE,111,0.0,1.0,87,0.00,,---,0.00,VWS V14.01,2013-05-24 09:45:00,
2013-05-24 05:47:00,57.4,54.8,30.03,WSW,256,0.0,2.0,91,0.00,,---,0.00,VWS V14.01,2013-05-24 09:47:00,
2013-05-24 05:50:00,57.8,54.3,30.01,ESE,111,0.0,1.0,88,0.00,,---,0.00,VWS V14.01,2013-05-24 09:50:00,
2013-05-24 05:52:00,58.0,54.8,30.03,SE,135,0.0,6.0,89,0.00,,---,0.00,VWS V14.01,2013-05-24 09:52:00,
2013-05-24 05:55:00,57.8,54.6,30.01,NW,314,1.0,1.0,89,0.00,,---,0.00,VWS V14.01,2013-05-24 09:55:00,
2013-05-24 05:57:00,58.8,55.3,30.03,NW,308,2.0,3.0,88,0.00,,---,0.00,VWS V14.01,2013-05-24 09:57:00,
2013-05-24 06:00:00,58.0,54.5,30.01,NNE,31,0.0,2.0,88,0.00,,---,0.00,VWS V14.01,2013-05-24 10:00:00,
2013-05-24 06:02:00,59.1,54.9,30.03,NNW,335,2.0,4.0,86,0.00,,---,0.00,VWS V14.01,2013-05-24 10:02:00,
2013-05-24 06:05:00,57.9,54.7,30.02,NNE,32,0.0,2.0,89,0.00,,---,0.00,VWS V14.01,2013-05-24 10:05:00,
2013-05-24 06:07:00,59.5,55.0,30.03,WNW,294,1.0,3.0,85,0.00,,---,0.00,VWS V14.01,2013-05-24 10:07:00,
2013-05-24 06:10:00,57.6,54.4,30.02,NNE,32,0.0,0.0,89,0.00,,---,0.00,VWS V14.01,2013-05-24 10:10:00,
2013-05-24 06:12:00,59.5,55.0,30.03,ESE,111,1.0,4.0,85,0.00,,---,0.00,VWS V14.01,2013-05-24 10:12:00,
2013-05-24 06:15:00,57.3,54.4,30.02,NW,321,0.0,2.0,90,0.00,,---,0.00,VWS V14.01,2013-05-24 10:15:00,
2013-05-24 06:17:00,59.6,54.8,30.03,SSW,208,3.0,7.0,84,0.00,,---,0.00,VWS V14.01,2013-05-24 10:17:00,
2013-05-24 06:20:00,57.1,54.5,30.02,NW,320,0.0,1.0,91,0.00,,---,0.00,VWS V14.01,2013-05-24 10:20:00,
2013-05-24 06:22:00,59.8,54.6,30.03,East,83,3.0,5.0,83,0.00,,---,0.00,VWS V14.01,2013-05-24 10:22:00,
2013-05-24 06:25:00,56.9,54.3,30.02,NW,320,0.0,1.0,91,0.00,,---,0.00,VWS V14.01,2013-05-24 10:25:00,
2013-05-24 06:27:00,60.0,54.5,30.03,NNE,18,0.0,2.0,82,0.00,,---,0.00,VWS V14.01,2013-05-24 10:27:00,
2013-05-24 06:30:00,56.7,54.1,30.02,ESE,109,0.0,3.0,91,0.00,,---,0.00,VWS V14.01,2013-05-24 10:30:00,
2013-05-24 06:32:00,59.9,54.7,30.04,NW,304,0.0,4.0,83,0.00,,---,0.00,VWS V14.01,2013-05-24 10:32:00,
2013-05-24 06:35:00,56.8,54.5,30.02,ENE,58,0.0,2.0,92,0.00,,---,0.00,VWS V14.01,2013-05-24 10:35:00,
2013-05-24 06:37:00,59.9,54.4,30.04,NW,319,2.0,7.0,82,0.00,,---,0.00,VWS V14.01,2013-05-24 10:37:00,
2013-05-24 06:40:00,56.8,54.2,30.02,North,1,0.0,3.0,91,0.00,,---,0.00,VWS V14.01,2013-05-24 10:40:00,
2013-05-24 06:42:00,59.8,54.3,30.05,ENE,68,0.0,4.0,82,0.00,,---,0.00,VWS V14.01,2013-05-24 10:42:00,
2013-05-24 06:45:00,57.3,54.7,30.02,WNW,293,0.0,3.0,91,0.00,,---,0.00,VWS V14.01,2013-05-24 10:45:00,
2013-05-24 06:47:00,59.7,54.2,30.05,ENE,70,0.0,9.0,82,0.00,,---,0.00,VWS V14.01,2013-05-24 10:47:00,
2013-05-24 06:50:00,57.8,54.9,30.03,West,275,0.0,3.0,90,0.00,,---,0.00,VWS V14.01,2013-05-24 10:50:00,
2013-05-24 06:52:00,59.5,54.3,30.06,SSE,167,2.0,5.0,83,0.00,,---,0.00,VWS V14.01,2013-05-24 10:52:00,
2013-05-24 06:55:00,58.6,55.1,30.03,SW,215,1.0,6.0,88,0.00,,---,0.00,VWS V14.01,2013-05-24 10:55:00,
2013-05-24 06:57:00,59.5,54.3,30.06,SSE,167,0.0,5.0,83,0.00,,---,0.00,VWS V14.01,2013-05-24 10:57:00,
2013-05-24 07:00:00,59.0,55.1,30.03,ENE,59,1.0,3.0,87,0.00,,---,0.00,VWS V14.01,2013-05-24 11:00:00,
2013-05-24 07:02:00,59.5,54.3,30.06,ESE,111,6.0,8.0,83,0.00,,---,0.00,VWS V14.01,2013-05-24 11:02:00,
2013-05-24 07:05:00,59.3,55.1,30.03,West,261,1.0,6.0,86,0.00,,---,0.00,VWS V14.01,2013-05-24 11:05:00,
2013-05-24 07:07:00,59.6,54.1,30.06,West,271,3.0,6.0,82,0.00,,---,0.00,VWS V14.01,2013-05-24 11:07:00,
2013-05-24 07:10:00,59.5,55.0,30.03,NE,56,0.0,4.0,85,0.00,,---,0.00,VWS V14.01,2013-05-24 11:10:00,
2013-05-24 07:12:00,59.7,54.2,30.06,SSE,156,2.0,6.0,82,0.00,,---,0.00,VWS V14.01,2013-05-24 11:12:00,
2013-05-24 07:15:00,59.5,54.7,30.03,SE,131,1.0,8.0,84,0.00,,---,0.00,VWS V14.01,2013-05-24 11:15:00,
2013-05-24 07:17:00,59.9,54.4,30.07,East,87,4.0,5.0,82,0.00,,---,0.00,VWS V14.01,2013-05-24 11:17:00,
2013-05-24 07:20:00,59.8,55.0,30.03,NNE,30,1.0,10.0,84,0.00,,---,0.00,VWS V14.01,2013-05-24 11:20:00,
2013-05-24 07:22:00,60.3,54.5,30.06,ESE,108,4.0,6.0,81,0.00,,---,0.00,VWS V14.01,2013-05-24 11:22:00,
2013-05-24 07:25:00,59.9,54.7,30.03,WNW,301,0.0,12.0,83,0.00,,---,0.00,VWS V14.01,2013-05-24 11:25:00,
2013-05-24 07:27:00,60.8,54.6,30.06,East,94,0.0,7.0,80,0.00,,---,0.00,VWS V14.01,2013-05-24 11:27:00,
2013-05-24 07:30:00,60.0,54.5,30.04,East,87,0.0,6.0,82,0.00,,---,0.00,VWS V14.01,2013-05-24 11:30:00,
2013-05-24 07:32:00,61.0,54.5,30.07,ESE,103,6.0,9.0,79,0.00,,---,0.00,VWS V14.01,2013-05-24 11:32:00,
2013-05-24 07:35:00,59.9,54.4,30.04,SSW,210,1.0,8.0,82,0.00,,---,0.00,VWS V14.01,2013-05-24 11:35:00,
2013-05-24 07:37:00,61.2,54.6,30.07,WNW,302,2.0,6.0,79,0.00,,---,0.00,VWS V14.01,2013-05-24 11:37:00,
2013-05-24 07:40:00,59.9,54.4,30.04,East,82,1.0,7.0,82,0.00,,---,0.00,VWS V14.01,2013-05-24 11:40:00,
2013-05-24 07:42:00,61.6,55.0,30.08,WSW,257,1.0,3.0,79,0.00,,---,0.00,VWS V14.01,2013-05-24 11:42:00,
2013-05-24 07:45:00,59.7,54.2,30.05,ESE,107,9.0,9.0,82,0.00,,---,0.00,VWS V14.01,2013-05-24 11:45:00,
2013-05-24 07:47:00,62.0,55.8,30.08,WSW,256,0.0,1.0,80,0.00,,---,0.00,VWS V14.01,2013-05-24 11:47:00,
2013-05-24 07:50:00,59.6,54.4,30.05,East,101,2.0,9.0,83,0.00,,---,0.00,VWS V14.01,2013-05-24 11:50:00,
2013-05-24 07:52:00,62.5,55.6,30.09,WNW,288,1.0,3.0,78,0.00,,---,0.00,VWS V14.01,2013-05-24 11:52:00,
2013-05-24 07:55:00,59.5,54.3,30.06,NW,318,0.0,5.0,83,0.00,,---,0.00,VWS V14.01,2013-05-24 11:55:00,
2013-05-24 07:57:00,62.9,55.2,30.09,West,259,1.0,3.0,76,0.00,,---,0.00,VWS V14.01,2013-05-24 11:57:00,
2013-05-24 08:00:00,59.5,54.3,30.06,NW,311,1.0,6.0,83,0.00,,---,0.00,VWS V14.01,2013-05-24 12:00:00,
2013-05-24 08:02:00,63.0,55.0,30.10,West,276,3.0,7.0,75,0.00,,---,0.00,VWS V14.01,2013-05-24 12:02:00,
2013-05-24 08:05:00,59.6,54.1,30.06,ESE,107,3.0,8.0,82,0.00,,---,0.00,VWS V14.01,2013-05-24 12:05:00,
2013-05-24 08:07:00,62.9,54.5,30.10,NNW,335,3.0,5.0,74,0.00,,---,0.00,VWS V14.01,2013-05-24 12:07:00,
2013-05-24 08:10:00,59.6,54.1,30.06,SSE,160,5.0,10.0,82,0.00,,---,0.00,VWS V14.01,2013-05-24 12:10:00,
2013-05-24 08:12:00,62.8,54.0,30.10,ESE,117,1.0,7.0,73,0.00,,---,0.00,VWS V14.01,2013-05-24 12:12:00,
2013-05-24 08:15:00,59.8,54.3,30.06,South,177,1.0,6.0,82,0.00,,---,0.00,VWS V14.01,2013-05-24 12:15:00,
2013-05-24 08:17:00,62.6,53.5,30.11,WNW,287,1.0,6.0,72,0.00,,---,0.00,VWS V14.01,2013-05-24 12:17:00,
2013-05-24 08:20:00,60.1,54.3,30.06,WSW,255,1.0,7.0,81,0.00,,---,0.00,VWS V14.01,2013-05-24 12:20:00,
2013-05-24 08:22:00,63.0,53.1,30.12,NW,315,2.0,11.0,70,0.00,,---,0.00,VWS V14.01,2013-05-24 12:22:00,
2013-05-24 08:25:00,60.6,54.8,30.06,NW,312,1.0,6.0,81,0.00,,---,0.00,VWS V14.01,2013-05-24 12:25:00,
2013-05-24 08:27:00,62.7,52.8,30.11,WSW,245,3.0,8.0,70,0.00,,---,0.00,VWS V14.01,2013-05-24 12:27:00,
2013-05-24 08:30:00,60.9,54.7,30.06,SSE,156,2.0,8.0,80,0.00,,---,0.00,VWS V14.01,2013-05-24 12:30:00,
2013-05-24 08:32:00,62.5,52.6,30.12,West,280,2.0,8.0,70,0.00,,---,0.00,VWS V14.01,2013-05-24 12:32:00,
2013-05-24 08:35:00,61.1,54.5,30.07,WNW,291,2.0,9.0,79,0.00,,---,0.00,VWS V14.01,2013-05-24 12:35:00,
2013-05-24 08:37:00,62.8,52.9,30.12,SW,219,3.0,7.0,70,0.00,,---,0.00,VWS V14.01,2013-05-24 12:37:00,
2013-05-24 08:40:00,61.4,55.2,30.07,ESE,116,3.0,6.0,80,0.00,,---,0.00,VWS V14.01,2013-05-24 12:40:00,
2013-05-24 08:42:00,62.9,53.0,30.12,West,260,1.0,4.0,70,0.00,,---,0.00,VWS V14.01,2013-05-24 12:42:00,
2013-05-24 08:45:00,61.8,55.2,30.08,West,262,1.0,4.0,79,0.00,,---,0.00,VWS V14.01,2013-05-24 12:45:00,
2013-05-24 08:47:00,63.4,52.7,30.12,WNW,301,1.0,7.0,68,0.00,,---,0.00,VWS V14.01,2013-05-24 12:47:00,
2013-05-24 08:50:00,62.3,55.4,30.08,NNW,334,0.0,1.0,78,0.00,,---,0.00,VWS V14.01,2013-05-24 12:50:00,
2013-05-24 08:52:00,63.6,53.3,30.12,NE,51,1.0,3.0,69,0.00,,---,0.00,VWS V14.01,2013-05-24 12:52:00,
2013-05-24 08:55:00,62.8,55.5,30.09,West,262,1.0,3.0,77,0.00,,---,0.00,VWS V14.01,2013-05-24 12:55:00,
2013-05-24 08:57:00,63.4,52.7,30.12,North,355,2.0,4.0,68,0.00,,---,0.00,VWS V14.01,2013-05-24 12:57:00,
2013-05-24 09:00:00,62.9,54.9,30.09,West,276,1.0,5.0,75,0.00,,---,0.00,VWS V14.01,2013-05-24 13:00:00,
2013-05-24 09:02:00,63.3,51.3,30.13,West,266,1.0,9.0,65,0.00,,---,0.00,VWS V14.01,2013-05-24 13:02:00,
2013-05-24 09:05:00,63.0,55.0,30.10,NNW,338,2.0,7.0,75,0.00,,---,0.00,VWS V14.01,2013-05-24 13:05:00,
2013-05-24 09:07:00,63.7,51.3,30.13,ENE,67,3.0,10.0,64,0.00,,---,0.00,VWS V14.01,2013-05-24 13:07:00,
2013-05-24 09:10:00,62.8,54.4,30.10,WSW,238,7.0,10.0,74,0.00,,---,0.00,VWS V14.01,2013-05-24 13:10:00,
2013-05-24 09:12:00,63.6,50.8,30.14,South,190,3.0,6.0,63,0.00,,---,0.00,VWS V14.01,2013-05-24 13:12:00,
2013-05-24 09:15:00,62.7,53.5,30.11,SE,146,6.0,7.0,72,0.00,,---,0.00,VWS V14.01,2013-05-24 13:15:00,
2013-05-24 09:17:00,63.5,51.1,30.14,WSW,254,3.0,8.0,64,0.00,,---,0.00,VWS V14.01,2013-05-24 13:17:00,
2013-05-24 09:20:00,62.9,53.4,30.11,SSE,153,2.0,6.0,71,0.00,,---,0.00,VWS V14.01,2013-05-24 13:20:00,
2013-05-24 09:22:00,64.0,51.2,30.14,SSW,207,0.0,6.0,63,0.00,,---,0.00,VWS V14.01,2013-05-24 13:22:00,
2013-05-24 09:25:00,62.8,52.9,30.11,WSW,238,4.0,11.0,70,0.00,,---,0.00,VWS V14.01,2013-05-24 13:25:00,
2013-05-24 09:27:00,64.0,50.3,30.15,WSW,247,2.0,7.0,61,0.00,,---,0.00,VWS V14.01,2013-05-24 13:27:00,
2013-05-24 09:30:00,62.6,53.1,30.11,WSW,255,3.0,8.0,71,0.00,,---,0.00,VWS V14.01,2013-05-24 13:30:00,
2013-05-24 09:32:00,64.2,50.0,30.15,WSW,245,2.0,4.0,60,0.00,,---,0.00,VWS V14.01,2013-05-24 13:32:00,
2013-05-24 09:35:00,62.7,53.2,30.12,SW,215,2.0,8.0,71,0.00,,---,0.00,VWS V14.01,2013-05-24 13:35:00,
2013-05-24 09:37:00,64.6,50.0,30.15,SE,143,1.0,8.0,59,0.00,,---,0.00,VWS V14.01,2013-05-24 13:37:00,
2013-05-24 09:40:00,62.8,52.9,30.12,NW,320,2.0,7.0,70,0.00,,---,0.00,VWS V14.01,2013-05-24 13:40:00,
2013-05-24 09:42:00,65.1,50.4,30.16,WSW,243,2.0,4.0,59,0.00,,---,0.00,VWS V14.01,2013-05-24 13:42:00,
2013-05-24 09:45:00,63.3,53.4,30.12,WNW,291,1.0,4.0,70,0.00,,---,0.00,VWS V14.01,2013-05-24 13:45:00,
2013-05-24 09:47:00,65.3,50.2,30.16,WSW,247,1.0,7.0,58,0.00,,---,0.00,VWS V14.01,2013-05-24 13:47:00,
2013-05-24 09:50:00,63.4,52.7,30.12,SE,145,1.0,7.0,68,0.00,,---,0.00,VWS V14.01,2013-05-24 13:50:00,
2013-05-24 09:52:00,65.3,49.7,30.16,WSW,250,3.0,6.0,57,0.00,,---,0.00,VWS V14.01,2013-05-24 13:52:00,
2013-05-24 09:55:00,63.5,52.4,30.12,WSW,238,1.0,10.0,67,0.00,,---,0.00,VWS V14.01,2013-05-24 13:55:00,
2013-05-24 09:57:00,65.2,49.1,30.16,NW,311,2.0,6.0,56,0.00,,---,0.00,VWS V14.01,2013-05-24 13:57:00,
2013-05-24 10:00:00,63.4,51.9,30.13,WNW,293,3.0,6.0,66,0.00,,---,0.00,VWS V14.01,2013-05-24 14:00:00,
2013-05-24 10:02:00,65.4,48.8,30.17,WSW,243,6.0,6.0,55,0.00,,---,0.00,VWS V14.01,2013-05-24 14:02:00,
2013-05-24 10:05:00,63.6,51.2,30.13,WSW,250,2.0,9.0,64,0.00,,---,0.00,VWS V14.01,2013-05-24 14:05:00,
2013-05-24 10:07:00,64.7,49.1,30.17,West,276,1.0,8.0,57,0.00,,---,0.00,VWS V14.01,2013-05-24 14:07:00,
2013-05-24 10:10:00,63.6,50.8,30.14,NE,47,1.0,10.0,63,0.00,,---,0.00,VWS V14.01,2013-05-24 14:10:00,
2013-05-24 10:12:00,65.8,50.6,30.17,SSW,212,2.0,3.0,58,0.00,,---,0.00,VWS V14.01,2013-05-24 14:12:00,
2013-05-24 10:15:00,63.5,51.1,30.14,SE,134,2.0,6.0,64,0.00,,---,0.00,VWS V14.01,2013-05-24 14:15:00,
2013-05-24 10:17:00,65.8,50.2,30.17,ENE,70,5.0,5.0,57,0.00,,---,0.00,VWS V14.01,2013-05-24 14:17:00,
2013-05-24 10:20:00,63.9,51.5,30.14,East,101,4.0,8.0,64,0.00,,---,0.00,VWS V14.01,2013-05-24 14:20:00,
2013-05-24 10:22:00,65.8,48.2,30.17,NNW,341,1.0,4.0,53,0.00,,---,0.00,VWS V14.01,2013-05-24 14:22:00,
2013-05-24 10:25:00,64.0,51.2,30.14,ESE,123,6.0,7.0,63,0.00,,---,0.00,VWS V14.01,2013-05-24 14:25:00,
2013-05-24 10:27:00,66.2,49.6,30.17,WSW,249,1.0,7.0,55,0.00,,---,0.00,VWS V14.01,2013-05-24 14:27:00,
2013-05-24 10:30:00,64.2,50.0,30.15,SW,228,3.0,7.0,60,0.00,,---,0.00,VWS V14.01,2013-05-24 14:30:00,
2013-05-24 10:32:00,66.1,49.5,30.17,West,275,3.0,12.0,55,0.00,,---,0.00,VWS V14.01,2013-05-24 14:32:00,
2013-05-24 10:35:00,64.5,49.9,30.15,WSW,257,4.0,4.0,59,0.00,,---,0.00,VWS V14.01,2013-05-24 14:35:00,
2013-05-24 10:37:00,65.4,49.3,30.17,NW,325,3.0,12.0,56,0.00,,---,0.00,VWS V14.01,2013-05-24 14:37:00,
2013-05-24 10:40:00,64.8,50.6,30.15,SW,233,4.0,8.0,60,0.00,,---,0.00,VWS V14.01,2013-05-24 14:40:00,
2013-05-24 10:42:00,65.4,49.8,30.17,SSE,160,1.0,5.0,57,0.00,,---,0.00,VWS V14.01,2013-05-24 14:42:00,
2013-05-24 10:45:00,65.4,50.2,30.16,NW,304,6.0,11.0,58,0.00,,---,0.00,VWS V14.01,2013-05-24 14:45:00,
2013-05-24 10:47:00,65.4,49.3,30.17,ESE,110,1.0,5.0,56,0.00,,---,0.00,VWS V14.01,2013-05-24 14:47:00,
2013-05-24 10:50:00,65.4,50.2,30.16,SSW,212,2.0,7.0,58,0.00,,---,0.00,VWS V14.01,2013-05-24 14:50:00,
2013-05-24 10:52:00,65.9,50.2,30.17,NNW,342,6.0,6.0,57,0.00,,---,0.00,VWS V14.01,2013-05-24 14:52:00,
2013-05-24 10:55:00,65.2,49.1,30.16,SE,131,1.0,11.0,56,0.00,,---,0.00,VWS V14.01,2013-05-24 14:55:00,
2013-05-24 10:57:00,66.8,50.6,30.17,West,259,4.0,7.0,56,0.00,,---,0.00,VWS V14.01,2013-05-24 14:57:00,
2013-05-24 11:00:00,65.4,49.8,30.17,WSW,248,4.0,6.0,57,0.00,,---,0.00,VWS V14.01,2013-05-24 15:00:00,
2013-05-24 11:02:00,66.0,49.4,30.18,NNE,16,3.0,7.0,55,0.00,,---,0.00,VWS V14.01,2013-05-24 15:02:00,
2013-05-24 11:05:00,64.9,48.4,30.17,WSW,242,8.0,9.0,55,0.00,,---,0.00,VWS V14.01,2013-05-24 15:05:00,
2013-05-24 11:07:00,65.7,50.1,30.18,NE,46,3.0,6.0,57,0.00,,---,0.00,VWS V14.01,2013-05-24 15:07:00,
2013-05-24 11:10:00,65.1,50.4,30.17,NNE,19,1.0,8.0,59,0.00,,---,0.00,VWS V14.01,2013-05-24 15:10:00,
2013-05-24 11:12:00,66.1,49.5,30.18,WSW,243,4.0,4.0,55,0.00,,---,0.00,VWS V14.01,2013-05-24 15:12:00,
2013-05-24 11:15:00,65.9,48.8,30.17,NNW,329,2.0,10.0,54,0.00,,---,0.00,VWS V14.01,2013-05-24 15:15:00,
2013-05-24 11:17:00,66.8,49.1,30.18,West,262,3.0,6.0,53,0.00,,---,0.00,VWS V14.01,2013-05-24 15:17:00,
2013-05-24 11:20:00,65.9,49.3,30.17,East,96,3.0,7.0,55,0.00,,---,0.00,VWS V14.01,2013-05-24 15:20:00,
2013-05-24 11:22:00,67.2,50.0,30.18,WSW,245,4.0,5.0,54,0.00,,---,0.00,VWS V14.01,2013-05-24 15:22:00,
2013-05-24 11:25:00,65.9,49.8,30.17,West,267,0.0,5.0,56,0.00,,---,0.00,VWS V14.01,2013-05-24 15:25:00,
2013-05-24 11:27:00,66.8,48.6,30.18,NW,326,1.0,6.0,52,0.00,,---,0.00,VWS V14.01,2013-05-24 15:27:00,
2013-05-24 11:30:00,66.1,50.0,30.17,SE,146,4.0,9.0,56,0.00,,---,0.00,VWS V14.01,2013-05-24 15:30:00,
2013-05-24 11:32:00,67.2,49.0,30.19,WSW,256,2.0,7.0,52,0.00,,---,0.00,VWS V14.01,2013-05-24 15:32:00,
2013-05-24 11:35:00,65.7,50.1,30.17,NNW,335,2.0,12.0,57,0.00,,---,0.00,VWS V14.01,2013-05-24 15:35:00,
2013-05-24 11:37:00,67.9,48.6,30.19,SE,125,5.0,7.0,50,0.00,,---,0.00,VWS V14.01,2013-05-24 15:37:00,
2013-05-24 11:40:00,65.3,49.2,30.17,WNW,299,1.0,12.0,56,0.00,,---,0.00,VWS V14.01,2013-05-24 15:40:00,
2013-05-24 11:42:00,67.5,48.8,30.19,NNW,347,2.0,7.0,51,0.00,,---,0.00,VWS V14.01,2013-05-24 15:42:00,
2013-05-24 11:45:00,65.4,49.3,30.17,ESE,105,2.0,5.0,56,0.00,,---,0.00,VWS V14.01,2013-05-24 15:45:00,
2013-05-24 11:47:00,67.6,48.3,30.18,WSW,243,4.0,7.0,50,0.00,,---,0.00,VWS V14.01,2013-05-24 15:47:00,
2013-05-24 11:50:00,65.6,50.4,30.17,WNW,292,1.0,6.0,58,0.00,,---,0.00,VWS V14.01,2013-05-24 15:50:00,
2013-05-24 11:52:00,68.5,50.2,30.19,WSW,238,3.0,4.0,52,0.00,,---,0.00,VWS V14.01,2013-05-24 15:52:00,
2013-05-24 11:55:00,66.3,50.6,30.17,WNW,293,2.0,6.0,57,0.00,,---,0.00,VWS V14.01,2013-05-24 15:55:00,
2013-05-24 11:57:00,68.3,48.4,30.19,West,267,2.0,6.0,49,0.00,,---,0.00,VWS V14.01,2013-05-24 15:57:00,
2013-05-24 12:00:00,66.5,49.8,30.17,West,259,4.0,8.0,55,0.00,,---,0.00,VWS V14.01,2013-05-24 16:00:00,
2013-05-24 12:02:00,68.3,47.9,30.20,West,280,2.0,8.0,48,0.00,,---,0.00,VWS V14.01,2013-05-24 16:02:00,
2013-05-24 12:05:00,65.6,48.5,30.18,NW,306,0.0,11.0,54,0.00,,---,0.00,VWS V14.01,2013-05-24 16:05:00,
2013-05-24 12:07:00,67.5,47.7,30.20,WSW,252,4.0,11.0,49,0.00,,---,0.00,VWS V14.01,2013-05-24 16:07:00,
2013-05-24 12:10:00,65.9,49.3,30.17,SSE,167,2.0,6.0,55,0.00,,---,0.00,VWS V14.01,2013-05-24 16:10:00,
2013-05-24 12:12:00,67.3,47.5,30.19,NNW,340,3.0,9.0,49,0.00,,---,0.00,VWS V14.01,2013-05-24 16:12:00,
2013-05-24 12:15:00,66.5,49.8,30.18,NW,306,1.0,11.0,55,0.00,,---,0.00,VWS V14.01,2013-05-24 16:15:00,
2013-05-24 12:17:00,67.5,48.8,30.20,ESE,122,3.0,5.0,51,0.00,,---,0.00,VWS V14.01,2013-05-24 16:17:00,
2013-05-24 12:20:00,66.9,48.7,30.18,WSW,240,5.0,6.0,52,0.00,,---,0.00,VWS V14.01,2013-05-24 16:20:00,
2013-05-24 12:22:00,68.0,48.2,30.20,WSW,252,2.0,8.0,49,0.00,,---,0.00,VWS V14.01,2013-05-24 16:22:00,
2013-05-24 12:25:00,67.1,48.9,30.18,ESE,123,2.0,8.0,52,0.00,,---,0.00,VWS V14.01,2013-05-24 16:25:00,
2013-05-24 12:27:00,67.5,48.2,30.19,WSW,252,4.0,8.0,50,0.00,,---,0.00,VWS V14.01,2013-05-24 16:27:00,
2013-05-24 12:30:00,66.9,49.2,30.18,WSW,242,1.0,6.0,53,0.00,,---,0.00,VWS V14.01,2013-05-24 16:30:00,
2013-05-24 12:32:00,67.7,49.5,30.19,SW,229,8.0,10.0,52,0.00,,---,0.00,VWS V14.01,2013-05-24 16:32:00,
2013-05-24 12:35:00,67.6,48.8,30.19,NNW,341,2.0,7.0,51,0.00,,---,0.00,VWS V14.01,2013-05-24 16:35:00,
2013-05-24 12:37:00,67.4,48.7,30.19,WSW,246,1.0,8.0,51,0.00,,---,0.00,VWS V14.01,2013-05-24 16:37:00,
2013-05-24 12:40:00,67.8,49.0,30.19,West,264,3.0,8.0,51,0.00,,---,0.00,VWS V14.01,2013-05-24 16:40:00,
2013-05-24 12:42:00,68.6,49.8,30.19,NNW,348,6.0,7.0,51,0.00,,---,0.00,VWS V14.01,2013-05-24 16:42:00,
2013-05-24 12:45:00,67.6,50.4,30.18,SE,134,3.0,8.0,54,0.00,,---,0.00,VWS V14.01,2013-05-24 16:45:00,
2013-05-24 12:47:00,68.0,49.2,30.19,West,267,1.0,7.0,51,0.00,,---,0.00,VWS V14.01,2013-05-24 16:47:00,
2013-05-24 12:50:00,67.8,49.0,30.18,NNW,346,1.0,7.0,51,0.00,,---,0.00,VWS V14.01,2013-05-24 16:50:00,
2013-05-24 12:52:00,67.8,46.9,30.19,WSW,246,4.0,12.0,47,0.00,,---,0.00,VWS V14.01,2013-05-24 16:52:00,
2013-05-24 12:55:00,68.6,48.2,30.19,WSW,245,4.0,6.0,48,0.00,,---,0.00,VWS V14.01,2013-05-24 16:55:00,
2013-05-24 12:57:00,67.6,48.8,30.19,WSW,253,5.0,6.0,51,0.00,,---,0.00,VWS V14.01,2013-05-24 16:57:00,
2013-05-24 13:00:00,68.5,49.7,30.19,WSW,246,3.0,6.0,51,0.00,,---,0.00,VWS V14.01,2013-05-24 17:00:00,
2013-05-24 13:02:00,67.5,47.1,30.19,ESE,122,4.0,8.0,48,0.00,,---,0.00,VWS V14.01,2013-05-24 17:02:00,
2013-05-24 13:05:00,68.0,48.7,30.20,East,87,4.0,8.0,50,0.00,,---,0.00,VWS V14.01,2013-05-24 17:05:00,
2013-05-24 13:07:00,67.3,48.0,30.19,West,280,1.0,7.0,50,0.00,,---,0.00,VWS V14.01,2013-05-24 17:07:00,
2013-05-24 13:10:00,67.1,47.9,30.20,WSW,245,1.0,11.0,50,0.00,,---,0.00,VWS V14.01,2013-05-24 17:10:00,
2013-05-24 13:12:00,67.7,47.9,30.19,SW,222,5.0,9.0,49,0.00,,---,0.00,VWS V14.01,2013-05-24 17:12:00,
2013-05-24 13:15:00,67.4,48.1,30.20,NNW,333,1.0,9.0,50,0.00,,---,0.00,VWS V14.01,2013-05-24 17:15:00,
2013-05-24 13:17:00,68.6,48.2,30.19,WSW,245,8.0,8.0,48,0.00,,---,0.00,VWS V14.01,2013-05-24 17:17:00,
2013-05-24 13:20:00,67.9,50.2,30.20,SW,229,2.0,5.0,53,0.00,,---,0.00,VWS V14.01,2013-05-24 17:20:00,
2013-05-24 13:22:00,69.2,49.2,30.19,SE,146,3.0,4.0,49,0.00,,---,0.00,VWS V14.01,2013-05-24 17:22:00,
2013-05-24 13:25:00,67.7,48.9,30.19,ENE,70,3.0,8.0,51,0.00,,---,0.00,VWS V14.01,2013-05-24 17:25:00,
2013-05-24 13:27:00,69.7,48.6,30.19,WSW,255,2.0,6.0,47,0.00,,---,0.00,VWS V14.01,2013-05-24 17:27:00,
2013-05-24 13:30:00,67.3,48.6,30.19,WSW,248,2.0,8.0,51,0.00,,---,0.00,VWS V14.01,2013-05-24 17:30:00,
2013-05-24 13:32:00,69.4,47.2,30.19,SSW,200,2.0,6.0,45,0.00,,---,0.00,VWS V14.01,2013-05-24 17:32:00,
2013-05-24 13:35:00,67.6,48.8,30.19,West,271,3.0,10.0,51,0.00,,---,0.00,VWS V14.01,2013-05-24 17:35:00,
2013-05-24 13:37:00,69.1,48.0,30.19,WNW,285,1.0,8.0,47,0.00,,---,0.00,VWS V14.01,2013-05-24 17:37:00,
2013-05-24 13:40:00,67.8,49.5,30.19,ESE,108,2.0,8.0,52,0.00,,---,0.00,VWS V14.01,2013-05-24 17:40:00,
2013-05-24 13:42:00,68.9,46.7,30.19,WSW,238,4.0,7.0,45,0.00,,---,0.00,VWS V14.01,2013-05-24 17:42:00,
2013-05-24 13:45:00,68.3,48.4,30.19,SE,128,3.0,9.0,49,0.00,,---,0.00,VWS V14.01,2013-05-24 17:45:00,
2013-05-24 13:47:00,69.3,48.2,30.19,NW,319,0.0,6.0,47,0.00,,---,0.00,VWS V14.01,2013-05-24 17:47:00,
2013-05-24 13:50:00,68.3,49.0,30.19,NW,325,3.0,15.0,50,0.00,,---,0.00,VWS V14.01,2013-05-24 17:50:00,
2013-05-24 13:52:00,70.9,49.1,30.19,NW,316,0.0,3.0,46,0.00,,---,0.00,VWS V14.01,2013-05-24 17:52:00,
2013-05-24 13:55:00,67.5,48.8,30.19,West,266,2.0,12.0,51,0.00,,---,0.00,VWS V14.01,2013-05-24 17:55:00,
2013-05-24 13:57:00,71.4,48.4,30.18,WNW,299,2.0,7.0,44,0.00,,---,0.00,VWS V14.01,2013-05-24 17:57:00,
2013-05-24 14:00:00,67.7,47.9,30.19,WSW,242,3.0,9.0,49,0.00,,---,0.00,VWS V14.01,2013-05-24 18:00:00,
2013-05-24 14:02:00,70.6,49.4,30.18,WSW,246,4.0,7.0,47,0.00,,---,0.00,VWS V14.01,2013-05-24 18:02:00,
2013-05-24 14:05:00,67.4,45.9,30.19,West,269,4.0,11.0,46,0.00,,---,0.00,VWS V14.01,2013-05-24 18:05:00,
2013-05-24 14:07:00,70.6,48.8,30.18,SW,229,5.0,8.0,46,0.00,,---,0.00,VWS V14.01,2013-05-24 18:07:00,
2013-05-24 14:10:00,67.8,48.0,30.19,WSW,246,6.0,9.0,49,0.00,,---,0.00,VWS V14.01,2013-05-24 18:10:00,
2013-05-24 14:13:00,70.8,47.2,30.18,WSW,257,5.0,7.0,43,0.00,,---,0.00,VWS V14.01,2013-05-24 18:13:00,
2013-05-24 14:15:00,68.0,48.2,30.19,North,8,1.0,9.0,49,0.00,,---,0.00,VWS V14.01,2013-05-24 18:15:00,
2013-05-24 14:18:00,70.2,45.4,30.18,ESE,121,2.0,5.0,41,0.00,,---,0.00,VWS V14.01,2013-05-24 18:18:00,
2013-05-24 14:20:00,68.8,49.4,30.19,SW,235,2.0,8.0,50,0.00,,---,0.00,VWS V14.01,2013-05-24 18:20:00,
2013-05-24 14:23:00,70.6,46.4,30.19,ENE,64,2.0,8.0,42,0.00,,---,0.00,VWS V14.01,2013-05-24 18:23:00,
2013-05-24 14:25:00,69.6,47.9,30.19,SW,218,4.0,8.0,46,0.00,,---,0.00,VWS V14.01,2013-05-24 18:25:00,
2013-05-24 14:28:00,70.5,45.7,30.18,East,96,10.0,10.0,41,0.00,,---,0.00,VWS V14.01,2013-05-24 18:28:00,
2013-05-24 14:30:00,69.6,47.3,30.19,West,259,2.0,10.0,45,0.00,,---,0.00,VWS V14.01,2013-05-24 18:30:00,
2013-05-24 14:33:00,71.6,47.9,30.18,WNW,288,3.0,4.0,43,0.00,,---,0.00,VWS V14.01,2013-05-24 18:33:00,
2013-05-24 14:35:00,69.3,47.7,30.19,West,259,1.0,7.0,46,0.00,,---,0.00,VWS V14.01,2013-05-24 18:35:00,
2013-05-24 14:38:00,71.6,46.7,30.18,East,92,2.0,5.0,41,0.00,,---,0.00,VWS V14.01,2013-05-24 18:38:00,
2013-05-24 14:40:00,69.2,47.6,30.18,WSW,252,5.0,8.0,46,0.00,,---,0.00,VWS V14.01,2013-05-24 18:40:00,
2013-05-24 14:43:00,72.0,47.0,30.18,West,260,5.0,8.0,41,0.00,,---,0.00,VWS V14.01,2013-05-24 18:43:00,
2013-05-24 14:45:00,69.1,47.5,30.18,WSW,256,2.0,7.0,46,0.00,,---,0.00,VWS V14.01,2013-05-24 18:45:00,
2013-05-24 14:48:00,71.1,48.1,30.18,WSW,252,2.0,8.0,44,0.00,,---,0.00,VWS V14.01,2013-05-24 18:48:00,
2013-05-24 14:50:00,70.1,49.0,30.19,East,80,2.0,6.0,47,0.00,,---,0.00,VWS V14.01,2013-05-24 18:50:00,
2013-05-24 14:53:00,71.1,46.9,30.18,WSW,238,3.0,6.0,42,0.00,,---,0.00,VWS V14.01,2013-05-24 18:53:00,
2013-05-24 14:55:00,71.3,48.9,30.18,WSW,248,4.0,8.0,45,0.00,,---,0.00,VWS V14.01,2013-05-24 18:55:00,
2013-05-24 14:58:00,71.7,45.5,30.18,WSW,248,4.0,8.0,39,0.00,,---,0.00,VWS V14.01,2013-05-24 18:58:00,
2013-05-24 15:00:00,71.1,48.1,30.19,WSW,253,6.0,7.0,44,0.00,,---,0.00,VWS V14.01,2013-05-24 19:00:00,
2013-05-24 15:03:00,71.1,45.6,30.18,SW,232,5.0,5.0,40,0.00,,---,0.00,VWS V14.01,2013-05-24 19:03:00,
2013-05-24 15:05:00,70.5,48.2,30.18,SW,228,3.0,7.0,45,0.00,,---,0.00,VWS V14.01,2013-05-24 19:05:00,
2013-05-24 15:08:00,70.8,46.6,30.18,WSW,245,3.0,7.0,42,0.00,,---,0.00,VWS V14.01,2013-05-24 19:08:00,
2013-05-24 15:10:00,70.7,48.3,30.18,SW,232,4.0,8.0,45,0.00,,---,0.00,VWS V14.01,2013-05-24 19:10:00,
2013-05-24 15:13:00,71.3,48.3,30.18,WSW,249,3.0,6.0,44,0.00,,---,0.00,VWS V14.01,2013-05-24 19:13:00,
2013-05-24 15:15:00,70.5,45.7,30.18,West,280,4.0,14.0,41,0.00,,---,0.00,VWS V14.01,2013-05-24 19:15:00,
2013-05-24 15:18:00,71.9,44.9,30.18,WSW,255,5.0,10.0,38,0.00,,---,0.00,VWS V14.01,2013-05-24 19:18:00,
2013-05-24 15:20:00,70.3,46.2,30.18,WSW,255,3.0,5.0,42,0.00,,---,0.00,VWS V14.01,2013-05-24 19:20:00,
2013-05-24 15:23:00,72.2,45.9,30.18,SW,222,4.0,8.0,39,0.00,,---,0.00,VWS V14.01,2013-05-24 19:23:00,
2013-05-24 15:25:00,70.6,45.1,30.18,East,98,4.0,11.0,40,0.00,,---,0.00,VWS V14.01,2013-05-24 19:25:00,
2013-05-24 15:28:00,72.6,48.8,30.18,WSW,253,1.0,4.0,43,0.00,,---,0.00,VWS V14.01,2013-05-24 19:28:00,
2013-05-24 15:30:00,70.8,48.4,30.18,WNW,297,1.0,10.0,45,0.00,,---,0.00,VWS V14.01,2013-05-24 19:30:00,
2013-05-24 15:33:00,72.4,49.3,30.18,WNW,285,4.0,4.0,44,0.00,,---,0.00,VWS V14.01,2013-05-24 19:33:00,
2013-05-24 15:35:00,71.6,46.7,30.18,NE,55,1.0,8.0,41,0.00,,---,0.00,VWS V14.01,2013-05-24 19:35:00,
2013-05-24 15:38:00,71.6,47.9,30.18,WSW,245,3.0,6.0,43,0.00,,---,0.00,VWS V14.01,2013-05-24 19:38:00,
2013-05-24 15:40:00,71.8,47.5,30.18,WNW,285,0.0,5.0,42,0.00,,---,0.00,VWS V14.01,2013-05-24 19:40:00,
2013-05-24 15:43:00,71.5,49.7,30.18,NW,314,1.0,4.0,46,0.00,,---,0.00,VWS V14.01,2013-05-24 19:43:00,
2013-05-24 15:45:00,71.5,46.6,30.18,SW,233,6.0,10.0,41,0.00,,---,0.00,VWS V14.01,2013-05-24 19:45:00,
2013-05-24 15:48:00,72.8,50.8,30.18,NNW,345,0.0,2.0,46,0.00,,---,0.00,VWS V14.01,2013-05-24 19:48:00,
2013-05-24 15:50:00,71.3,47.0,30.18,WSW,249,3.0,8.0,42,0.00,,---,0.00,VWS V14.01,2013-05-24 19:50:00,
2013-05-24 15:53:00,73.9,49.4,30.18,NW,309,1.0,5.0,42,0.00,,---,0.00,VWS V14.01,2013-05-24 19:53:00,
2013-05-24 15:55:00,71.3,48.3,30.18,WSW,239,1.0,6.0,44,0.00,,---,0.00,VWS V14.01,2013-05-24 19:55:00,
2013-05-24 15:58:00,73.5,48.4,30.18,WSW,239,6.0,7.0,41,0.00,,---,0.00,VWS V14.01,2013-05-24 19:58:00,
2013-05-24 16:00:00,71.4,46.5,30.18,WSW,240,3.0,8.0,41,0.00,,---,0.00,VWS V14.01,2013-05-24 20:00:00,
2013-05-24 16:03:00,73.4,47.0,30.18,WNW,300,0.0,3.0,39,0.00,,---,0.00,VWS V14.01,2013-05-24 20:03:00,
2013-05-24 16:05:00,70.8,46.0,30.18,WSW,242,3.0,11.0,41,0.00,,---,0.00,VWS V14.01,2013-05-24 20:05:00,
2013-05-24 16:08:00,74.4,48.5,30.18,SSW,197,3.0,3.0,40,0.00,,---,0.00,VWS V14.01,2013-05-24 20:08:00,
2013-05-24 16:10:00,70.9,46.0,30.18,SW,228,1.0,7.0,41,0.00,,---,0.00,VWS V14.01,2013-05-24 20:10:00,
2013-05-24 16:13:00,74.0,49.5,30.18,West,260,2.0,4.0,42,0.00,,---,0.00,VWS V14.01,2013-05-24 20:13:00,
2013-05-24 16:15:00,71.7,45.5,30.18,West,274,2.0,6.0,39,0.00,,---,0.00,VWS V14.01,2013-05-24 20:15:00,
2013-05-24 16:18:00,73.6,49.1,30.18,West,273,1.0,4.0,42,0.00,,---,0.00,VWS V14.01,2013-05-24 20:18:00,
2013-05-24 16:20:00,72.0,45.7,30.18,NNE,29,2.0,10.0,39,0.00,,---,0.00,VWS V14.01,2013-05-24 20:20:00,
2013-05-24 16:23:00,73.5,49.7,30.18,West,269,2.0,5.0,43,0.00,,---,0.00,VWS V14.01,2013-05-24 20:23:00,
2013-05-24 16:25:00,72.3,47.3,30.18,WSW,249,3.0,8.0,41,0.00,,---,0.00,VWS V14.01,2013-05-24 20:25:00,
2013-05-24 16:28:00,72.1,47.8,30.18,NW,326,6.0,9.0,42,0.00,,---,0.00,VWS V14.01,2013-05-24 20:28:00,
2013-05-24 16:30:00,72.7,48.3,30.18,NW,315,2.0,7.0,42,0.00,,---,0.00,VWS V14.01,2013-05-24 20:30:00,
2013-05-24 16:33:00,71.5,47.8,30.18,NW,314,6.0,9.0,43,0.00,,---,0.00,VWS V14.01,2013-05-24 20:33:00,
2013-05-24 16:35:00,72.0,47.7,30.18,West,267,2.0,10.0,42,0.00,,---,0.00,VWS V14.01,2013-05-24 20:35:00,
2013-05-24 16:38:00,71.7,48.7,30.17,NW,323,4.0,5.0,44,0.00,,---,0.00,VWS V14.01,2013-05-24 20:38:00,
2013-05-24 16:40:00,71.4,47.8,30.18,West,278,1.0,9.0,43,0.00,,---,0.00,VWS V14.01,2013-05-24 20:40:00,
2013-05-24 16:43:00,72.2,47.9,30.18,NW,319,6.0,10.0,42,0.00,,---,0.00,VWS V14.01,2013-05-24 20:43:00,
2013-05-24 16:45:00,71.9,49.4,30.18,WNW,302,2.0,4.0,45,0.00,,---,0.00,VWS V14.01,2013-05-24 20:45:00,
2013-05-24 16:48:00,72.0,48.3,30.18,WNW,295,5.0,6.0,43,0.00,,---,0.00,VWS V14.01,2013-05-24 20:48:00,
2013-05-24 16:50:00,73.7,51.1,30.18,WSW,253,2.0,4.0,45,0.00,,---,0.00,VWS V14.01,2013-05-24 20:50:00,
2013-05-24 16:53:00,72.1,47.8,30.18,WSW,252,6.0,7.0,42,0.00,,---,0.00,VWS V14.01,2013-05-24 20:53:00,
2013-05-24 16:55:00,73.8,47.3,30.18,ESE,113,1.0,6.0,39,0.00,,---,0.00,VWS V14.01,2013-05-24 20:55:00,
2013-05-24 16:58:00,71.9,48.2,30.18,NNW,340,4.0,7.0,43,0.00,,---,0.00,VWS V14.01,2013-05-24 20:58:00,
2013-05-24 17:00:00,73.2,48.8,30.18,WNW,288,3.0,7.0,42,0.00,,---,0.00,VWS V14.01,2013-05-24 21:00:00,
2013-05-24 17:03:00,72.6,48.8,30.18,NW,319,2.0,5.0,43,0.00,,---,0.00,VWS V14.01,2013-05-24 21:03:00,
2013-05-24 17:05:00,74.0,48.8,30.18,NW,323,1.0,3.0,41,0.00,,---,0.00,VWS V14.01,2013-05-24 21:05:00,
2013-05-24 17:08:00,73.2,45.4,30.18,ENE,75,3.0,11.0,37,0.00,,---,0.00,VWS V14.01,2013-05-24 21:08:00,
2013-05-24 17:10:00,74.2,48.3,30.18,WNW,296,2.0,4.0,40,0.00,,---,0.00,VWS V14.01,2013-05-24 21:10:00,
2013-05-24 17:13:00,73.5,44.9,30.18,WSW,255,3.0,7.0,36,0.00,,---,0.00,VWS V14.01,2013-05-24 21:13:00,
2013-05-24 17:15:00,73.8,48.7,30.18,West,269,3.0,4.0,41,0.00,,---,0.00,VWS V14.01,2013-05-24 21:15:00,
2013-05-24 17:18:00,73.5,47.0,30.18,WNW,283,2.0,5.0,39,0.00,,---,0.00,VWS V14.01,2013-05-24 21:18:00,
2013-05-24 17:20:00,73.5,49.0,30.18,WSW,255,0.0,4.0,42,0.00,,---,0.00,VWS V14.01,2013-05-24 21:20:00,
2013-05-24 17:23:00,74.0,45.4,30.18,NW,316,0.0,2.0,36,0.00,,---,0.00,VWS V14.01,2013-05-24 21:23:00,
2013-05-24 17:25:00,73.1,48.0,30.18,WSW,242,3.0,8.0,41,0.00,,---,0.00,VWS V14.01,2013-05-24 21:25:00,
2013-05-24 17:28:00,74.4,45.0,30.18,SSW,206,1.0,5.0,35,0.00,,---,0.00,VWS V14.01,2013-05-24 21:28:00,
2013-05-24 17:30:00,71.8,48.1,30.17,NNW,331,4.0,9.0,43,0.00,,---,0.00,VWS V14.01,2013-05-24 21:30:00,
2013-05-24 17:33:00,74.3,44.1,30.18,SE,128,4.0,6.0,34,0.00,,---,0.00,VWS V14.01,2013-05-24 21:33:00,
2013-05-24 17:35:00,71.5,48.5,30.18,WSW,238,4.0,9.0,44,0.00,,---,0.00,VWS V14.01,2013-05-24 21:35:00,
2013-05-24 17:38:00,74.2,45.6,30.18,WSW,249,3.0,5.0,36,0.00,,---,0.00,VWS V14.01,2013-05-24 21:38:00,
2013-05-24 17:40:00,71.9,48.8,30.17,ENE,67,0.0,5.0,44,0.00,,---,0.00,VWS V14.01,2013-05-24 21:40:00,
2013-05-24 17:43:00,73.8,42.9,30.18,West,263,3.0,6.0,33,0.00,,---,0.00,VWS V14.01,2013-05-24 21:43:00,
2013-05-24 17:45:00,71.9,47.0,30.17,West,273,3.0,10.0,41,0.00,,---,0.00,VWS V14.01,2013-05-24 21:45:00,
2013-05-24 17:48:00,73.6,44.3,30.18,WSW,239,1.0,9.0,35,0.00,,---,0.00,VWS V14.01,2013-05-24 21:48:00,
2013-05-24 17:50:00,72.0,47.7,30.17,West,271,2.0,8.0,42,0.00,,---,0.00,VWS V14.01,2013-05-24 21:50:00,
2013-05-24 17:53:00,74.1,44.0,30.17,WSW,248,1.0,3.0,34,0.00,,---,0.00,VWS V14.01,2013-05-24 21:53:00,
2013-05-24 17:55:00,72.0,48.3,30.18,WNW,290,5.0,7.0,43,0.00,,---,0.00,VWS V14.01,2013-05-24 21:55:00,
2013-05-24 17:58:00,73.8,43.7,30.18,West,266,2.0,7.0,34,0.00,,---,0.00,VWS V14.01,2013-05-24 21:58:00,
2013-05-24 18:00:00,72.1,49.0,30.18,East,93,2.0,7.0,44,0.00,,---,0.00,VWS V14.01,2013-05-24 22:00:00,
2013-05-24 18:03:00,73.7,43.6,30.17,WSW,248,3.0,12.0,34,0.00,,---,0.00,VWS V14.01,2013-05-24 22:03:00,
2013-05-24 18:05:00,72.9,46.5,30.18,ESE,122,11.0,11.0,39,0.00,,---,0.00,VWS V14.01,2013-05-24 22:05:00,
2013-05-24 18:08:00,73.2,43.2,30.17,WNW,286,1.0,7.0,34,0.00,,---,0.00,VWS V14.01,2013-05-24 22:08:00,
2013-05-24 18:10:00,73.4,44.8,30.18,NW,307,2.0,11.0,36,0.00,,---,0.00,VWS V14.01,2013-05-24 22:10:00,
2013-05-24 18:13:00,73.2,43.2,30.17,NW,326,1.0,4.0,34,0.00,,---,0.00,VWS V14.01,2013-05-24 22:13:00,
2013-05-24 18:15:00,73.4,48.3,30.18,WSW,252,3.0,7.0,41,0.00,,---,0.00,VWS V14.01,2013-05-24 22:15:00,
2013-05-24 18:18:00,73.2,43.2,30.17,NW,321,1.0,5.0,34,0.00,,---,0.00,VWS V14.01,2013-05-24 22:18:00,
2013-05-24 18:20:00,73.6,45.8,30.18,East,83,2.0,5.0,37,0.00,,---,0.00,VWS V14.01,2013-05-24 22:20:00,
2013-05-24 18:23:00,72.8,42.8,30.17,SW,229,1.0,7.0,34,0.00,,---,0.00,VWS V14.01,2013-05-24 22:23:00,
2013-05-24 18:25:00,74.4,45.0,30.18,SSE,149,1.0,4.0,35,0.00,,---,0.00,VWS V14.01,2013-05-24 22:25:00,
2013-05-24 18:28:00,73.0,43.0,30.17,SW,228,0.0,4.0,34,0.00,,---,0.00,VWS V14.01,2013-05-24 22:28:00,
2013-05-24 18:30:00,74.2,44.8,30.18,SE,125,3.0,5.0,35,0.00,,---,0.00,VWS V14.01,2013-05-24 22:30:00,
2013-05-24 18:33:00,73.3,44.8,30.17,West,268,0.0,4.0,36,0.00,,---,0.00,VWS V14.01,2013-05-24 22:33:00,
2013-05-24 18:35:00,74.2,44.8,30.18,SSE,155,1.0,6.0,35,0.00,,---,0.00,VWS V14.01,2013-05-24 22:35:00,
2013-05-24 18:38:00,73.1,43.1,30.17,ESE,118,2.0,6.0,34,0.00,,---,0.00,VWS V14.01,2013-05-24 22:38:00,
2013-05-24 18:40:00,74.1,43.2,30.18,WSW,243,2.0,6.0,33,0.00,,---,0.00,VWS V14.01,2013-05-24 22:40:00,
2013-05-24 18:43:00,73.1,45.3,30.17,WNW,302,1.0,4.0,37,0.00,,---,0.00,VWS V14.01,2013-05-24 22:43:00,
2013-05-24 18:45:00,73.8,43.7,30.17,SSW,197,1.0,6.0,34,0.00,,---,0.00,VWS V14.01,2013-05-24 22:45:00,
2013-05-24 18:48:00,73.4,44.8,30.17,NW,325,3.0,3.0,36,0.00,,---,0.00,VWS V14.01,2013-05-24 22:48:00,
2013-05-24 18:50:00,73.7,43.6,30.17,West,259,0.0,9.0,34,0.00,,---,0.00,VWS V14.01,2013-05-24 22:50:00,
2013-05-24 18:53:00,73.0,45.9,30.17,SW,235,6.0,6.0,38,0.00,,---,0.00,VWS V14.01,2013-05-24 22:53:00,
2013-05-24 18:55:00,74.1,44.0,30.18,WNW,298,2.0,4.0,34,0.00,,---,0.00,VWS V14.01,2013-05-24 22:55:00,
2013-05-24 18:58:00,72.4,46.7,30.17,South,190,0.0,4.0,40,0.00,,---,0.00,VWS V14.01,2013-05-24 22:58:00,
2013-05-24 19:00:00,73.7,42.8,30.17,NNW,335,1.0,7.0,33,0.00,,---,0.00,VWS V14.01,2013-05-24 23:00:00,
2013-05-24 19:03:00,72.9,47.2,30.17,West,273,1.0,6.0,40,0.00,,---,0.00,VWS V14.01,2013-05-24 23:03:00,
2013-05-24 19:05:00,73.6,42.8,30.17,WSW,253,7.0,12.0,33,0.00,,---,0.00,VWS V14.01,2013-05-24 23:05:00,
2013-05-24 19:08:00,72.4,47.4,30.17,NE,44,1.0,6.0,41,0.00,,---,0.00,VWS V14.01,2013-05-24 23:08:00,
2013-05-24 19:10:00,73.2,43.2,30.17,ENE,68,2.0,7.0,34,0.00,,---,0.00,VWS V14.01,2013-05-24 23:10:00,
2013-05-24 19:13:00,72.2,47.9,30.17,NW,319,1.0,2.0,42,0.00,,---,0.00,VWS V14.01,2013-05-24 23:13:00,
2013-05-24 19:15:00,73.1,42.3,30.17,WSW,245,4.0,5.0,33,0.00,,---,0.00,VWS V14.01,2013-05-24 23:15:00,
2013-05-24 19:18:00,72.7,48.3,30.17,NE,41,0.0,3.0,42,0.00,,---,0.00,VWS V14.01,2013-05-24 23:18:00,
2013-05-24 19:20:00,73.2,43.2,30.17,WSW,248,6.0,6.0,34,0.00,,---,0.00,VWS V14.01,2013-05-24 23:20:00,
2013-05-24 19:23:00,72.6,48.2,30.17,SW,229,0.0,2.0,42,0.00,,---,0.00,VWS V14.01,2013-05-24 23:23:00,
2013-05-24 19:25:00,73.0,43.0,30.17,WSW,246,2.0,7.0,34,0.00,,---,0.00,VWS V14.01,2013-05-24 23:25:00,
2013-05-24 19:28:00,72.0,47.7,30.17,South,177,1.0,4.0,42,0.00,,---,0.00,VWS V14.01,2013-05-24 23:28:00,
2013-05-24 19:30:00,73.1,43.8,30.17,WSW,239,4.0,4.0,35,0.00,,---,0.00,VWS V14.01,2013-05-24 23:30:00,
2013-05-24 19:33:00,71.4,47.8,30.17,WSW,252,1.0,2.0,43,0.00,,---,0.00,VWS V14.01,2013-05-24 23:33:00,
2013-05-24 19:35:00,73.5,43.4,30.17,West,266,2.0,5.0,34,0.00,,---,0.00,VWS V14.01,2013-05-24 23:35:00,
2013-05-24 19:38:00,71.3,47.7,30.17,SW,226,0.0,1.0,43,0.00,,---,0.00,VWS V14.01,2013-05-24 23:38:00,
2013-05-24 19:40:00,73.1,44.6,30.17,SW,228,2.0,6.0,36,0.00,,---,0.00,VWS V14.01,2013-05-24 23:40:00,
2013-05-24 19:43:00,71.5,45.9,30.18,ENE,75,0.0,2.0,40,0.00,,---,0.00,VWS V14.01,2013-05-24 23:43:00,
2013-05-24 19:45:00,73.1,45.3,30.17,WSW,245,1.0,4.0,37,0.00,,---,0.00,VWS V14.01,2013-05-24 23:45:00,
2013-05-24 19:48:00,71.6,46.0,30.18,NW,318,0.0,1.0,40,0.00,,---,0.00,VWS V14.01,2013-05-24 23:48:00,
2013-05-24 19:50:00,73.4,45.6,30.17,WSW,257,3.0,3.0,37,0.00,,---,0.00,VWS V14.01,2013-05-24 23:50:00,
2013-05-24 19:53:00,71.8,46.9,30.18,NW,307,0.0,1.0,41,0.00,,---,0.00,VWS V14.01,2013-05-24 23:53:00,
2013-05-24 19:55:00,72.6,46.2,30.17,SE,132,0.0,6.0,39,0.00,,---,0.00,VWS V14.01,2013-05-24 23:55:00,
2013-05-24 19:58:00,72.0,47.7,30.18,NW,308,0.0,0.0,42,0.00,,---,0.00,VWS V14.01,2013-05-24 23:58:00,
2013-05-24 20:00:00,72.6,46.9,30.17,NNW,342,0.0,4.0,40,0.00,,---,0.00,VWS V14.01,2013-05-25 00:00:00,
2013-05-24 20:03:00,71.7,48.0,30.18,NW,311,0.0,0.0,43,0.00,,---,0.00,VWS V14.01,2013-05-25 00:03:00,
2013-05-24 20:05:00,72.8,47.8,30.17,ESE,102,4.0,6.0,41,0.00,,---,0.00,VWS V14.01,2013-05-25 00:05:00,
2013-05-24 20:08:00,71.2,46.3,30.18,NW,308,0.0,1.0,41,0.00,,---,0.00,VWS V14.01,2013-05-25 00:08:00,
2013-05-24 20:10:00,72.3,47.3,30.17,West,268,0.0,6.0,41,0.00,,---,0.00,VWS V14.01,2013-05-25 00:10:00,
2013-05-24 20:13:00,70.0,45.2,30.18,NW,309,0.0,0.0,41,0.00,,---,0.00,VWS V14.01,2013-05-25 00:13:00,
2013-05-24 20:15:00,72.3,48.0,30.17,NW,318,0.0,2.0,42,0.00,,---,0.00,VWS V14.01,2013-05-25 00:15:00,
2013-05-24 20:18:00,68.4,46.2,30.18,NNE,29,0.0,1.0,45,0.00,,---,0.00,VWS V14.01,2013-05-25 00:18:00,
2013-05-24 20:20:00,72.8,47.8,30.17,West,276,1.0,3.0,41,0.00,,---,0.00,VWS V14.01,2013-05-25 00:20:00,
2013-05-24 20:23:00,67.0,45.6,30.18,NNE,29,0.0,0.0,46,0.00,,---,0.00,VWS V14.01,2013-05-25 00:23:00,
2013-05-24 20:25:00,72.5,48.1,30.17,ENE,70,2.0,3.0,42,0.00,,---,0.00,VWS V14.01,2013-05-25 00:25:00,
2013-05-24 20:28:00,66.2,46.0,30.19,ESE,103,1.0,1.0,48,0.00,,---,0.00,VWS V14.01,2013-05-25 00:28:00,
2013-05-24 20:30:00,71.8,47.5,30.17,WNW,288,1.0,4.0,42,0.00,,---,0.00,VWS V14.01,2013-05-25 00:30:00,
2013-05-24 20:33:00,65.4,46.8,30.19,ESE,103,0.0,0.0,51,0.00,,---,0.00,VWS V14.01,2013-05-25 00:33:00,
2013-05-24 20:35:00,71.2,49.4,30.17,SW,226,0.0,2.0,46,0.00,,---,0.00,VWS V14.01,2013-05-25 00:35:00,
2013-05-24 20:38:00,64.7,48.2,30.18,ESE,103,0.0,0.0,55,0.00,,---,0.00,VWS V14.01,2013-05-25 00:38:00,
2013-05-24 20:40:00,71.5,46.6,30.18,WSW,248,1.0,2.0,41,0.00,,---,0.00,VWS V14.01,2013-05-25 00:40:00,
2013-05-24 20:43:00,63.9,46.5,30.18,ESE,103,0.0,0.0,53,0.00,,---,0.00,VWS V14.01,2013-05-25 00:43:00,
2013-05-24 20:45:00,71.6,45.4,30.18,NE,45,1.0,2.0,39,0.00,,---,0.00,VWS V14.01,2013-05-25 00:45:00,
2013-05-24 20:48:00,63.0,47.1,30.18,ESE,103,0.0,0.0,56,0.00,,---,0.00,VWS V14.01,2013-05-25 00:48:00,
2013-05-24 20:50:00,71.8,46.2,30.18,NW,311,0.0,1.0,40,0.00,,---,0.00,VWS V14.01,2013-05-25 00:50:00,
2013-05-24 20:53:00,62.1,48.1,30.18,ESE,103,0.0,0.0,60,0.00,,---,0.00,VWS V14.01,2013-05-25 00:53:00,
2013-05-24 20:55:00,71.8,45.5,30.18,NW,308,0.0,1.0,39,0.00,,---,0.00,VWS V14.01,2013-05-25 00:55:00,
2013-05-24 20:58:00,61.2,47.7,30.18,ESE,103,0.0,0.0,61,0.00,,---,0.00,VWS V14.01,2013-05-25 00:58:00,
2013-05-24 21:00:00,71.9,46.3,30.18,NW,307,0.0,1.0,40,0.00,,---,0.00,VWS V14.01,2013-05-25 01:00:00,
2013-05-24 21:03:00,60.4,47.3,30.18,ESE,103,0.0,0.0,62,0.00,,---,0.00,VWS V14.01,2013-05-25 01:03:00,
2013-05-24 21:05:00,71.6,46.7,30.18,NW,309,0.0,0.0,41,0.00,,---,0.00,VWS V14.01,2013-05-25 01:05:00,
2013-05-24 21:08:00,59.8,48.0,30.18,ESE,103,0.0,0.0,65,0.00,,---,0.00,VWS V14.01,2013-05-25 01:08:00,
2013-05-24 21:10:00,70.9,46.7,30.18,NW,309,0.0,1.0,42,0.00,,---,0.00,VWS V14.01,2013-05-25 01:10:00,
2013-05-24 21:13:00,59.2,48.7,30.19,ESE,103,0.0,0.0,68,0.00,,---,0.00,VWS V14.01,2013-05-25 01:13:00,
2013-05-24 21:15:00,69.4,46.0,30.18,NNE,26,0.0,1.0,43,0.00,,---,0.00,VWS V14.01,2013-05-25 01:15:00,
2013-05-24 21:18:00,58.4,48.3,30.19,ESE,103,0.0,0.0,69,0.00,,---,0.00,VWS V14.01,2013-05-25 01:18:00,
2013-05-24 21:20:00,67.7,46.2,30.18,NNE,29,0.0,1.0,46,0.00,,---,0.00,VWS V14.01,2013-05-25 01:20:00,
2013-05-24 21:23:00,57.7,48.4,30.19,ESE,103,0.0,0.0,71,0.00,,---,0.00,VWS V14.01,2013-05-25 01:23:00,
2013-05-24 21:25:00,66.6,45.2,30.19,ESE,103,1.0,2.0,46,0.00,,---,0.00,VWS V14.01,2013-05-25 01:25:00,
2013-05-24 21:28:00,57.0,48.4,30.19,ESE,103,0.0,0.0,73,0.00,,---,0.00,VWS V14.01,2013-05-25 01:28:00,
2013-05-24 21:30:00,65.9,46.2,30.19,ESE,103,0.0,1.0,49,0.00,,---,0.00,VWS V14.01,2013-05-25 01:30:00,
2013-05-24 21:33:00,56.5,48.7,30.19,ESE,103,0.0,0.0,75,0.00,,---,0.00,VWS V14.01,2013-05-25 01:33:00,
2013-05-24 21:35:00,65.1,45.5,30.19,ESE,103,0.0,0.0,49,0.00,,---,0.00,VWS V14.01,2013-05-25 01:35:00,
2013-05-24 21:38:00,56.1,49.0,30.19,ESE,103,0.0,0.0,77,0.00,,---,0.00,VWS V14.01,2013-05-25 01:38:00,
2013-05-24 21:40:00,64.5,48.0,30.18,ESE,103,0.0,0.0,55,0.00,,---,0.00,VWS V14.01,2013-05-25 01:40:00,
2013-05-24 21:43:00,55.7,49.3,30.19,ESE,103,0.0,0.0,79,0.00,,---,0.00,VWS V14.01,2013-05-25 01:43:00,
2013-05-24 21:45:00,63.5,47.1,30.18,ESE,103,0.0,0.0,55,0.00,,---,0.00,VWS V14.01,2013-05-25 01:45:00,
2013-05-24 21:48:00,55.1,48.4,30.19,ESE,103,0.0,0.0,78,0.00,,---,0.00,VWS V14.01,2013-05-25 01:48:00,
2013-05-24 21:50:00,62.7,47.7,30.18,ESE,103,0.0,0.0,58,0.00,,---,0.00,VWS V14.01,2013-05-25 01:50:00,
2013-05-24 21:53:00,54.7,48.0,30.20,ESE,103,0.0,0.0,78,0.00,,---,0.00,VWS V14.01,2013-05-25 01:53:00,
2013-05-24 21:55:00,61.8,47.3,30.18,ESE,103,0.0,0.0,59,0.00,,---,0.00,VWS V14.01,2013-05-25 01:55:00,
2013-05-24 21:58:00,54.5,48.1,30.20,ESE,103,0.0,0.0,79,0.00,,---,0.00,VWS V14.01,2013-05-25 01:58:00,
2013-05-24 22:00:00,60.9,47.4,30.18,ESE,103,0.0,0.0,61,0.00,,---,0.00,VWS V14.01,2013-05-25 02:00:00,
2013-05-24 22:03:00,54.1,48.7,30.20,ESE,103,0.0,0.0,82,0.00,,---,0.00,VWS V14.01,2013-05-25 02:03:00,
2013-05-24 22:05:00,60.1,47.9,30.18,ESE,103,0.0,0.0,64,0.00,,---,0.00,VWS V14.01,2013-05-25 02:05:00,
2013-05-24 22:08:00,53.8,48.8,30.20,ESE,103,0.0,0.0,83,0.00,,---,0.00,VWS V14.01,2013-05-25 02:08:00,
2013-05-24 22:10:00,59.6,47.8,30.18,ESE,103,0.0,0.0,65,0.00,,---,0.00,VWS V14.01,2013-05-25 02:10:00,
2013-05-24 22:13:00,53.6,48.9,30.20,ESE,103,0.0,0.0,84,0.00,,---,0.00,VWS V14.01,2013-05-25 02:13:00,
2013-05-24 22:15:00,58.9,48.8,30.18,ESE,103,0.0,0.0,69,0.00,,---,0.00,VWS V14.01,2013-05-25 02:15:00,
2013-05-24 22:18:00,53.5,48.5,30.20,ESE,103,0.0,0.0,83,0.00,,---,0.00,VWS V14.01,2013-05-25 02:18:00,
2013-05-24 22:20:00,58.2,48.8,30.18,ESE,103,0.0,0.0,71,0.00,,---,0.00,VWS V14.01,2013-05-25 02:20:00,
2013-05-24 22:23:00,53.3,48.6,30.20,ESE,103,0.0,0.0,84,0.00,,---,0.00,VWS V14.01,2013-05-25 02:23:00,
2013-05-24 22:25:00,57.4,48.5,30.19,ESE,103,0.0,0.0,72,0.00,,---,0.00,VWS V14.01,2013-05-25 02:25:00,
2013-05-24 22:28:00,53.4,48.4,30.20,ESE,103,0.0,0.0,83,0.00,,---,0.00,VWS V14.01,2013-05-25 02:28:00,
2013-05-24 22:30:00,56.8,48.2,30.19,ESE,103,0.0,0.0,73,0.00,,---,0.00,VWS V14.01,2013-05-25 02:30:00,
2013-05-24 22:33:00,54.0,48.0,30.20,ESE,103,0.0,1.0,80,0.00,,---,0.00,VWS V14.01,2013-05-25 02:33:00,
2013-05-24 22:35:00,56.4,48.6,30.19,ESE,103,0.0,0.0,75,0.00,,---,0.00,VWS V14.01,2013-05-25 02:35:00,
2013-05-24 22:38:00,54.1,48.1,30.20,ESE,103,0.0,0.0,80,0.00,,---,0.00,VWS V14.01,2013-05-25 02:38:00,
2013-05-24 22:40:00,55.9,48.8,30.19,ESE,103,0.0,0.0,77,0.00,,---,0.00,VWS V14.01,2013-05-25 02:40:00,
2013-05-24 22:43:00,53.8,47.8,30.20,ESE,103,0.0,0.0,80,0.00,,---,0.00,VWS V14.01,2013-05-25 02:43:00,
2013-05-24 22:45:00,55.5,49.1,30.19,ESE,103,0.0,0.0,79,0.00,,---,0.00,VWS V14.01,2013-05-25 02:45:00,
2013-05-24 22:48:00,53.5,48.2,30.20,ESE,103,0.0,0.0,82,0.00,,---,0.00,VWS V14.01,2013-05-25 02:48:00,
2013-05-24 22:50:00,55.0,48.3,30.19,ESE,103,0.0,0.0,78,0.00,,---,0.00,VWS V14.01,2013-05-25 02:50:00,
2013-05-24 22:53:00,53.1,48.1,30.20,ESE,103,0.0,0.0,83,0.00,,---,0.00,VWS V14.01,2013-05-25 02:53:00,
2013-05-24 22:55:00,54.7,48.3,30.20,ESE,103,0.0,0.0,79,0.00,,---,0.00,VWS V14.01,2013-05-25 02:55:00,
2013-05-24 22:58:00,52.4,47.7,30.20,ESE,103,0.0,0.0,84,0.00,,---,0.00,VWS V14.01,2013-05-25 02:58:00,
2013-05-24 23:00:00,54.3,48.6,30.20,ESE,103,0.0,0.0,81,0.00,,---,0.00,VWS V14.01,2013-05-25 03:00:00,
2013-05-24 23:03:00,52.1,47.4,30.20,ESE,103,0.0,0.0,84,0.00,,---,0.00,VWS V14.01,2013-05-25 03:03:00,
2013-05-24 23:05:00,54.0,49.0,30.20,ESE,103,0.0,0.0,83,0.00,,---,0.00,VWS V14.01,2013-05-25 03:05:00,
2013-05-24 23:08:00,52.2,47.8,30.20,ESE,103,0.0,0.0,85,0.00,,---,0.00,VWS V14.01,2013-05-25 03:08:00,
2013-05-24 23:10:00,53.7,49.0,30.20,ESE,103,0.0,0.0,84,0.00,,---,0.00,VWS V14.01,2013-05-25 03:10:00,
2013-05-24 23:13:00,52.2,47.5,30.21,ESE,103,0.0,0.0,84,0.00,,---,0.00,VWS V14.01,2013-05-25 03:13:00,
2013-05-24 23:15:00,53.5,48.8,30.20,ESE,103,0.0,0.0,84,0.00,,---,0.00,VWS V14.01,2013-05-25 03:15:00,
2013-05-24 23:18:00,52.0,47.3,30.21,ESE,103,0.0,0.0,84,0.00,,---,0.00,VWS V14.01,2013-05-25 03:18:00,
2013-05-24 23:20:00,53.4,48.4,30.20,ESE,103,0.0,0.0,83,0.00,,---,0.00,VWS V14.01,2013-05-25 03:20:00,
2013-05-24 23:23:00,51.8,47.1,30.21,ESE,103,0.0,0.0,84,0.00,,---,0.00,VWS V14.01,2013-05-25 03:23:00,
2013-05-24 23:25:00,53.3,48.6,30.20,ESE,103,0.0,0.0,84,0.00,,---,0.00,VWS V14.01,2013-05-25 03:25:00,
2013-05-24 23:28:00,51.6,47.6,30.21,ESE,103,0.0,0.0,86,0.00,,---,0.00,VWS V14.01,2013-05-25 03:28:00,
2013-05-24 23:30:00,53.5,48.2,30.20,ESE,103,1.0,1.0,82,0.00,,---,0.00,VWS V14.01,2013-05-25 03:30:00,
2013-05-24 23:33:00,51.5,47.8,30.21,ESE,103,0.0,0.0,87,0.00,,---,0.00,VWS V14.01,2013-05-25 03:33:00,
2013-05-24 23:35:00,54.1,48.1,30.20,ESE,103,0.0,1.0,80,0.00,,---,0.00,VWS V14.01,2013-05-25 03:35:00,
2013-05-24 23:38:00,51.2,47.8,30.22,ESE,103,0.0,0.0,88,0.00,,---,0.00,VWS V14.01,2013-05-25 03:38:00,
2013-05-24 23:40:00,54.0,48.3,30.20,ESE,103,0.0,0.0,81,0.00,,---,0.00,VWS V14.01,2013-05-25 03:40:00,
2013-05-24 23:43:00,51.2,47.8,30.22,ESE,103,0.0,0.0,88,0.00,,---,0.00,VWS V14.01,2013-05-25 03:43:00,
2013-05-24 23:45:00,53.7,48.0,30.20,ESE,103,0.0,0.0,81,0.00,,---,0.00,VWS V14.01,2013-05-25 03:45:00,
2013-05-24 23:48:00,51.0,47.6,30.22,ESE,103,0.0,0.0,88,0.00,,---,0.00,VWS V14.01,2013-05-25 03:48:00,
2013-05-24 23:50:00,53.4,48.4,30.20,ESE,103,0.0,0.0,83,0.00,,---,0.00,VWS V14.01,2013-05-25 03:50:00,
2013-05-24 23:53:00,50.7,47.3,30.22,ESE,103,0.0,0.0,88,0.00,,---,0.00,VWS V14.01,2013-05-25 03:53:00,
2013-05-24 23:55:00,52.9,48.2,30.20,ESE,103,0.0,0.0,84,0.00,,---,0.00,VWS V14.01,2013-05-25 03:55:00,
2013-05-24 23:58:00,50.2,46.8,30.23,ESE,103,0.0,0.0,88,0.00,,---,0.00,VWS V14.01,2013-05-25 03:58:00,